Wetterdaten: aktuell Sonntag, 18.02.2018 21:00
Datum Zeit Temp. 2m Temp. 5cm Temp. -10cm Temp. 2m alt Feuchte A. Luftdruck Regen Wind Richtung Richtung Taupunkt Windchill Windben
18.02.2018 21:00 0,1 C -0,7 C 2,5 C -0,3 C 77 % 1028,0 hPa 0,0 l/m 0,0 km/h (0 Bft) W 270 -3,4 C 0,1 C 0,0 km/h (0 Bft)
18.02.2018 20:58 0,2 C -0,7 C 2,5 C -0,3 C 77 % 1028,0 hPa 0,0 l/m 0,0 km/h (0 Bft) W 270 -3,3 C 0,2 C 0,0 km/h (0 Bft)
18.02.2018 20:56 0,2 C -0,7 C 2,5 C -0,3 C 77 % 1028,0 hPa 0,0 l/m 0,0 km/h (0 Bft) W 270 -3,3 C 0,2 C 0,0 km/h (0 Bft)
18.02.2018 20:54 0,2 C -0,6 C 2,5 C -0,3 C 78 % 1028,0 hPa 0,0 l/m 0,0 km/h (0 Bft) W 270 -3,2 C 0,2 C 0,0 km/h (0 Bft)
18.02.2018 20:52 0,2 C -0,6 C 2,5 C -0,3 C 78 % 1028,0 hPa 0,0 l/m 0,0 km/h (0 Bft) W 270 -3,2 C 0,2 C 0,0 km/h (0 Bft)
18.02.2018 20:50 0,2 C -0,3 C 2,5 C -0,3 C 78 % 1028,0 hPa 0,0 l/m 0,0 km/h (0 Bft) W 270 -3,2 C 0,2 C 0,0 km/h (0 Bft)
18.02.2018 20:48 0,2 C -0,3 C 2,5 C -0,3 C 78 % 1028,3 hPa 0,0 l/m 0,0 km/h (0 Bft) W 270 -3,2 C 0,2 C 0,0 km/h (0 Bft)
18.02.2018 20:46 0,2 C -0,5 C 2,5 C -0,3 C 78 % 1028,3 hPa 0,0 l/m 0,0 km/h (0 Bft) W 270 -3,2 C 0,2 C 0,0 km/h (0 Bft)
18.02.2018 20:44 0,2 C -0,5 C 2,5 C -0,3 C 78 % 1028,3 hPa 0,0 l/m 0,2 km/h (0 Bft) W 270 -3,2 C 0,2 C 0,0 km/h (0 Bft)
18.02.2018 20:42 0,2 C -0,6 C 2,5 C -0,3 C 78 % 1028,3 hPa 0,0 l/m 0,2 km/h (0 Bft) NW 315 -3,2 C 0,2 C 0,0 km/h (0 Bft)
18.02.2018 20:40 0,2 C -0,5 C 2,5 C -0,3 C 78 % 1028,3 hPa 0,0 l/m 0,2 km/h (0 Bft) NW 315 -3,2 C 0,2 C 0,0 km/h (0 Bft)
18.02.2018 20:38 0,2 C -0,6 C 2,5 C -0,3 C 77 % 1028,3 hPa 0,0 l/m 0,2 km/h (0 Bft) NW 315 -3,3 C 0,2 C 0,0 km/h (0 Bft)
18.02.2018 20:36 0,2 C -0,6 C 2,5 C -0,3 C 77 % 1028,3 hPa 0,0 l/m 0,3 km/h (0 Bft) W 270 -3,3 C 0,2 C 0,0 km/h (0 Bft)
18.02.2018 20:34 0,2 C -0,5 C 2,5 C -0,3 C 77 % 1028,3 hPa 0,0 l/m 0,3 km/h (0 Bft) W-NW 292 -3,3 C 0,2 C 0,0 km/h (0 Bft)
18.02.2018 20:32 0,3 C -0,5 C 2,5 C -0,3 C 77 % 1028,3 hPa 0,0 l/m 0,3 km/h (0 Bft) W 270 -3,2 C 0,3 C 0,0 km/h (0 Bft)
18.02.2018 20:30 0,2 C -0,3 C 2,5 C -0,3 C 77 % 1028,3 hPa 0,0 l/m 0,3 km/h (0 Bft) NO 45 -3,3 C 0,2 C 0,0 km/h (0 Bft)
18.02.2018 20:29 0,2 C -0,3 C 2,5 C -0,3 C 77 % 1028,1 hPa 0,0 l/m 0,3 km/h (0 Bft) N-NO 22 -3,3 C 0,2 C 0,0 km/h (0 Bft)
18.02.2018 20:26 0,2 C -0,5 C 2,5 C -0,3 C 77 % 1028,1 hPa 0,0 l/m 0,3 km/h (0 Bft) NO 45 -3,3 C 0,2 C 2,5 km/h (1 Bft)
18.02.2018 20:24 0,2 C -0,5 C 2,5 C -0,3 C 77 % 1028,1 hPa 0,0 l/m 0,0 km/h (0 Bft) NO 45 -3,3 C 0,2 C 1,9 km/h (1 Bft)
18.02.2018 20:22 0,2 C -0,5 C 2,5 C -0,3 C 77 % 1028,1 hPa 0,0 l/m 0,0 km/h (0 Bft) S-SO 157 -3,3 C 0,2 C 0,0 km/h (0 Bft)
18.02.2018 20:20 0,2 C -0,6 C 2,5 C -0,3 C 77 % 1028,1 hPa 0,0 l/m 0,0 km/h (0 Bft) S-SO 157 -3,3 C 0,2 C 0,0 km/h (0 Bft)
18.02.2018 20:18 0,2 C -0,6 C 2,5 C -0,3 C 77 % 1028,1 hPa 0,0 l/m 0,0 km/h (0 Bft) S-SO 157 -3,3 C 0,2 C 0,0 km/h (0 Bft)
18.02.2018 20:16 0,2 C -0,6 C 2,5 C -0,3 C 77 % 1028,1 hPa 0,0 l/m 0,0 km/h (0 Bft) S-SO 157 -3,3 C 0,2 C 0,0 km/h (0 Bft)
18.02.2018 20:14 0,2 C -0,6 C 2,5 C -0,3 C 77 % 1028,1 hPa 0,0 l/m 0,0 km/h (0 Bft) S-SO 157 -3,3 C 0,2 C 0,0 km/h (0 Bft)
18.02.2018 20:12 0,2 C -0,5 C 2,5 C -0,3 C 77 % 1028,1 hPa 0,0 l/m 0,0 km/h (0 Bft) S 180 -3,3 C 0,2 C 0,0 km/h (0 Bft)
18.02.2018 20:10 0,3 C -0,6 C 2,5 C -0,2 C 77 % 1028,1 hPa 0,0 l/m 0,0 km/h (0 Bft) S 180 -3,2 C 0,3 C 0,0 km/h (0 Bft)
18.02.2018 20:08 0,3 C -0,6 C 2,5 C -0,3 C 77 % 1028,1 hPa 0,0 l/m 0,0 km/h (0 Bft) S 180 -3,2 C 0,3 C 0,0 km/h (0 Bft)
18.02.2018 20:06 0,3 C -0,6 C 2,5 C -0,2 C 77 % 1028,1 hPa 0,0 l/m 0,2 km/h (0 Bft) S 180 -3,2 C 0,3 C 0,0 km/h (0 Bft)
18.02.2018 20:04 0,3 C -0,6 C 2,5 C -0,2 C 77 % 1028,1 hPa 0,0 l/m 0,3 km/h (0 Bft) S 180 -3,2 C 0,3 C 0,0 km/h (0 Bft)
18.02.2018 20:02 0,2 C -0,6 C 2,5 C -0,2 C 77 % 1028,1 hPa 0,0 l/m 0,3 km/h (0 Bft) NO 45 -3,3 C 0,2 C 0,0 km/h (0 Bft)
18.02.2018 20:00 0,2 C -0,6 C 2,5 C -0,2 C 77 % 1028,1 hPa 0,0 l/m 0,3 km/h (0 Bft) NO 45 -3,3 C 0,2 C 0,0 km/h (0 Bft)
18.02.2018 19:58 0,2 C -0,6 C 2,5 C -0,2 C 77 % 1028,1 hPa 0,0 l/m 0,3 km/h (0 Bft) NO 45 -3,3 C 0,2 C 2,5 km/h (1 Bft)
18.02.2018 19:56 0,2 C -0,5 C 2,5 C -0,2 C 77 % 1028,1 hPa 0,0 l/m 0,2 km/h (0 Bft) NO 45 -3,3 C 0,2 C 2,5 km/h (1 Bft)
18.02.2018 19:54 0,2 C -0,5 C 2,5 C -0,2 C 77 % 1028,1 hPa 0,0 l/m 0,0 km/h (0 Bft) NO 45 -3,3 C 0,2 C 0,0 km/h (0 Bft)
18.02.2018 19:52 0,2 C -0,5 C 2,5 C -0,2 C 77 % 1028,1 hPa 0,0 l/m 0,0 km/h (0 Bft) N-NO 22 -3,3 C 0,2 C 0,0 km/h (0 Bft)
18.02.2018 19:50 0,2 C -0,5 C 2,5 C -0,2 C 77 % 1028,1 hPa 0,0 l/m 0,2 km/h (0 Bft) SO 135 -3,3 C 0,2 C 0,0 km/h (0 Bft)
18.02.2018 19:48 0,2 C -0,5 C 2,5 C -0,2 C 77 % 1028,2 hPa 0,0 l/m 0,2 km/h (0 Bft) S-SO 157 -3,3 C 0,2 C 0,0 km/h (0 Bft)
18.02.2018 19:46 0,2 C -0,5 C 2,5 C -0,2 C 77 % 1028,2 hPa 0,0 l/m 0,2 km/h (0 Bft) S-SO 157 -3,3 C 0,2 C 0,0 km/h (0 Bft)
18.02.2018 19:44 0,2 C -0,5 C 2,5 C -0,2 C 77 % 1028,2 hPa 0,0 l/m 0,2 km/h (0 Bft) N-NO 22 -3,3 C 0,2 C 0,0 km/h (0 Bft)
18.02.2018 19:42 0,2 C -0,5 C 2,5 C -0,2 C 77 % 1028,2 hPa 0,0 l/m 0,2 km/h (0 Bft) N-NO 22 -3,3 C 0,2 C 2,5 km/h (1 Bft)
18.02.2018 19:40 0,2 C -0,5 C 2,5 C -0,2 C 77 % 1028,2 hPa 0,0 l/m 0,0 km/h (0 Bft) N-NO 22 -3,3 C 0,2 C 2,5 km/h (1 Bft)
18.02.2018 19:38 0,2 C -0,5 C 2,5 C -0,2 C 77 % 1028,2 hPa 0,0 l/m 0,0 km/h (0 Bft) NW 315 -3,3 C 0,2 C 0,0 km/h (0 Bft)
18.02.2018 19:36 0,1 C -0,6 C 2,5 C -0,2 C 77 % 1028,2 hPa 0,0 l/m 0,0 km/h (0 Bft) W-SW 247 -3,4 C 0,1 C 0,0 km/h (0 Bft)
18.02.2018 19:34 0,2 C -0,6 C 2,5 C -0,2 C 77 % 1028,2 hPa 0,0 l/m 0,2 km/h (0 Bft) SO 135 -3,3 C 0,2 C 0,0 km/h (0 Bft)
18.02.2018 19:32 0,2 C -0,6 C 2,5 C -0,1 C 77 % 1028,2 hPa 0,0 l/m 0,3 km/h (0 Bft) SO 135 -3,3 C 0,2 C 0,0 km/h (0 Bft)
18.02.2018 19:30 0,1 C -0,6 C 2,5 C -0,1 C 77 % 1028,2 hPa 0,0 l/m 0,3 km/h (0 Bft) W-SW 247 -3,4 C 0,1 C 0,0 km/h (0 Bft)
18.02.2018 19:28 0,1 C -0,6 C 2,5 C -0,1 C 77 % 1028,4 hPa 0,0 l/m 0,3 km/h (0 Bft) W-SW 247 -3,4 C 0,1 C 1,9 km/h (1 Bft)
18.02.2018 19:26 0,1 C -0,6 C 2,5 C -0,1 C 77 % 1028,4 hPa 0,0 l/m 0,3 km/h (0 Bft) SW 225 -3,4 C 0,1 C 2,1 km/h (1 Bft)
18.02.2018 19:24 0,1 C -0,5 C 2,5 C -0,1 C 77 % 1028,4 hPa 0,0 l/m 0,3 km/h (0 Bft) SW 225 -3,4 C 0,1 C 2,5 km/h (1 Bft)
18.02.2018 19:22 0,1 C -0,5 C 2,5 C -0,1 C 77 % 1028,4 hPa 0,0 l/m 0,3 km/h (0 Bft) SW 225 -3,4 C 0,1 C 2,5 km/h (1 Bft)
18.02.2018 19:20 0,1 C -0,5 C 2,5 C -0,1 C 77 % 1028,4 hPa 0,0 l/m 0,2 km/h (0 Bft) W-SW 247 -3,4 C 0,1 C 1,9 km/h (1 Bft)
18.02.2018 19:18 0,1 C -0,3 C 2,5 C -0,1 C 77 % 1028,4 hPa 0,0 l/m 0,2 km/h (0 Bft) W-SW 247 -3,4 C 0,1 C 2,1 km/h (1 Bft)
18.02.2018 19:16 0,2 C -0,5 C 2,5 C -0,1 C 77 % 1028,4 hPa 0,0 l/m 0,2 km/h (0 Bft) S-SW 202 -3,3 C 0,2 C 2,1 km/h (1 Bft)
18.02.2018 19:14 0,2 C -0,5 C 2,5 C -0,1 C 77 % 1028,4 hPa 0,0 l/m 0,0 km/h (0 Bft) S-SO 157 -3,3 C 0,2 C 0,0 km/h (0 Bft)
18.02.2018 19:12 0,3 C -0,3 C 2,5 C -0,1 C 76 % 1028,4 hPa 0,0 l/m 0,0 km/h (0 Bft) S 180 -3,4 C 0,3 C 0,0 km/h (0 Bft)
18.02.2018 19:10 0,3 C -0,5 C 2,5 C -0,1 C 76 % 1028,4 hPa 0,0 l/m 0,0 km/h (0 Bft) NO 45 -3,4 C 0,3 C 0,0 km/h (0 Bft)
18.02.2018 19:09 0,3 C -0,5 C 2,5 C -0,1 C 76 % 1028,3 hPa 0,0 l/m 0,0 km/h (0 Bft) N-NO 22 -3,4 C 0,3 C 0,0 km/h (0 Bft)
18.02.2018 19:06 0,3 C -0,5 C 2,5 C -0,1 C 76 % 1028,3 hPa 0,0 l/m 0,0 km/h (0 Bft) N-NO 22 -3,4 C 0,3 C 0,0 km/h (0 Bft)
18.02.2018 19:04 0,3 C -0,5 C 2,5 C -0,1 C 76 % 1028,3 hPa 0,0 l/m 0,0 km/h (0 Bft) N-NO 22 -3,4 C 0,3 C 0,0 km/h (0 Bft)
18.02.2018 19:02 0,3 C -0,5 C 2,5 C -0,1 C 76 % 1028,3 hPa 0,0 l/m 0,0 km/h (0 Bft) N-NO 22 -3,4 C 0,3 C 0,0 km/h (0 Bft)
18.02.2018 19:00 0,4 C -0,6 C 2,5 C -0,1 C 76 % 1028,3 hPa 0,0 l/m 0,2 km/h (0 Bft) N-NO 22 -3,3 C 0,4 C 0,0 km/h (0 Bft)
18.02.2018 18:58 0,4 C -0,5 C 2,5 C -0,1 C 76 % 1028,3 hPa 0,0 l/m 0,2 km/h (0 Bft) N-NO 22 -3,3 C 0,4 C 0,0 km/h (0 Bft)
18.02.2018 18:56 0,4 C -0,5 C 2,5 C -0,1 C 76 % 1028,3 hPa 0,0 l/m 0,2 km/h (0 Bft) N-NO 22 -3,3 C 0,4 C 0,0 km/h (0 Bft)
18.02.2018 18:52 0,4 C -0,5 C 2,5 C 0,0 C 76 % 1028,3 hPa 0,0 l/m 0,0 km/h (0 Bft) NO 45 -3,3 C 0,4 C 0,0 km/h (0 Bft)
18.02.2018 18:50 0,4 C -0,5 C 2,5 C 0,0 C 76 % 1028,3 hPa 0,0 l/m 0,0 km/h (0 Bft) O-NO 67 -3,3 C 0,4 C 0,0 km/h (0 Bft)
18.02.2018 18:48 0,4 C -0,5 C 2,5 C 0,0 C 76 % 1028,4 hPa 0,0 l/m 0,0 km/h (0 Bft) N-NO 22 -3,3 C 0,4 C 0,0 km/h (0 Bft)
18.02.2018 18:46 0,3 C -0,5 C 2,5 C 0,0 C 76 % 1028,4 hPa 0,0 l/m 0,0 km/h (0 Bft) S 180 -3,4 C 0,3 C 0,0 km/h (0 Bft)
18.02.2018 18:44 0,3 C -0,6 C 2,5 C 0,0 C 75 % 1028,4 hPa 0,0 l/m 0,0 km/h (0 Bft) S 180 -3,6 C 0,3 C 0,0 km/h (0 Bft)
18.02.2018 18:42 0,3 C -0,6 C 2,5 C 0,0 C 75 % 1028,4 hPa 0,0 l/m 0,0 km/h (0 Bft) S 180 -3,6 C 0,3 C 0,0 km/h (0 Bft)
18.02.2018 18:40 0,3 C -0,6 C 2,5 C 0,0 C 75 % 1028,4 hPa 0,0 l/m 0,0 km/h (0 Bft) S 180 -3,6 C 0,3 C 0,0 km/h (0 Bft)
18.02.2018 18:39 0,4 C -0,6 C 2,5 C 0,0 C 75 % 1028,4 hPa 0,1 l/m 0,0 km/h (0 Bft) S 180 -3,5 C 0,4 C 0,0 km/h (0 Bft)
18.02.2018 18:36 0,4 C -0,6 C 2,5 C 0,1 C 75 % 1028,4 hPa 0,0 l/m 0,0 km/h (0 Bft) S 180 -3,5 C 0,4 C 0,0 km/h (0 Bft)
18.02.2018 18:34 0,4 C -0,5 C 2,5 C 0,1 C 75 % 1028,4 hPa 0,0 l/m 0,0 km/h (0 Bft) S 180 -3,5 C 0,4 C 0,0 km/h (0 Bft)
18.02.2018 18:32 0,5 C -0,5 C 2,5 C 0,1 C 75 % 1028,4 hPa 0,0 l/m 0,0 km/h (0 Bft) S 180 -3,4 C 0,5 C 0,0 km/h (0 Bft)
18.02.2018 18:30 0,5 C -0,5 C 2,5 C 0,1 C 75 % 1028,4 hPa 0,0 l/m 0,0 km/h (0 Bft) S-SW 202 -3,4 C 0,5 C 0,0 km/h (0 Bft)
18.02.2018 18:28 0,5 C -0,5 C 2,5 C 0,1 C 75 % 1028,3 hPa 0,0 l/m 0,0 km/h (0 Bft) S-SW 202 -3,4 C 0,5 C 0,0 km/h (0 Bft)
18.02.2018 18:26 0,5 C -0,5 C 2,5 C 0,1 C 75 % 1028,3 hPa 0,0 l/m 0,0 km/h (0 Bft) S-SW 202 -3,4 C 0,5 C 0,0 km/h (0 Bft)
18.02.2018 18:24 0,5 C -0,6 C 2,5 C 0,1 C 75 % 1028,3 hPa 0,0 l/m 0,0 km/h (0 Bft) S-SO 157 -3,4 C 0,5 C 0,0 km/h (0 Bft)
18.02.2018 18:22 0,4 C -0,6 C 2,5 C 0,2 C 75 % 1028,3 hPa 0,0 l/m 0,0 km/h (0 Bft) S-SO 157 -3,5 C 0,4 C 0,0 km/h (0 Bft)
18.02.2018 18:20 0,4 C -0,5 C 2,5 C 0,2 C 75 % 1028,3 hPa 0,0 l/m 0,0 km/h (0 Bft) S-SO 157 -3,5 C 0,4 C 0,0 km/h (0 Bft)
18.02.2018 18:18 0,4 C -0,5 C 2,5 C 0,2 C 75 % 1028,3 hPa 0,0 l/m 0,0 km/h (0 Bft) S-SO 157 -3,5 C 0,4 C 0,0 km/h (0 Bft)
18.02.2018 18:16 0,4 C -0,5 C 2,5 C 0,2 C 75 % 1028,3 hPa 0,0 l/m 0,0 km/h (0 Bft) S-SO 157 -3,5 C 0,4 C 0,0 km/h (0 Bft)
18.02.2018 18:14 0,4 C -0,5 C 2,5 C 0,2 C 75 % 1028,3 hPa 0,0 l/m 0,3 km/h (0 Bft) SW 225 -3,5 C 0,4 C 0,0 km/h (0 Bft)
18.02.2018 18:12 0,4 C -0,5 C 2,5 C 0,2 C 75 % 1028,3 hPa 0,0 l/m 0,3 km/h (0 Bft) W-SW 247 -3,5 C 0,4 C 0,0 km/h (0 Bft)
18.02.2018 18:10 0,4 C -0,5 C 2,5 C 0,3 C 75 % 1028,3 hPa 0,0 l/m 0,8 km/h (0 Bft) W-SW 247 -3,5 C 0,4 C 0,0 km/h (0 Bft)
18.02.2018 18:08 0,4 C -0,5 C 2,5 C 0,3 C 75 % 1028,2 hPa 0,0 l/m 1,0 km/h (0 Bft) S-SW 202 -3,5 C 0,4 C 0,0 km/h (0 Bft)
18.02.2018 18:06 0,4 C -0,3 C 2,5 C 0,3 C 75 % 1028,2 hPa 0,0 l/m 1,0 km/h (0 Bft) S-SW 202 -3,5 C 0,4 C 0,0 km/h (0 Bft)
18.02.2018 18:04 0,5 C -0,3 C 2,5 C 0,3 C 75 % 1028,2 hPa 0,0 l/m 0,8 km/h (0 Bft) S-SW 202 -3,4 C 0,5 C 1,9 km/h (1 Bft)
18.02.2018 18:02 0,5 C -0,3 C 2,5 C 0,3 C 75 % 1028,2 hPa 0,0 l/m 0,6 km/h (0 Bft) W-SW 247 -3,4 C 0,5 C 3,1 km/h (1 Bft)
18.02.2018 18:00 0,5 C -0,3 C 2,5 C 0,3 C 75 % 1028,2 hPa 0,0 l/m 0,5 km/h (0 Bft) W-SW 247 -3,4 C 0,5 C 3,3 km/h (1 Bft)
18.02.2018 17:58 0,5 C -0,3 C 2,5 C 0,3 C 75 % 1028,2 hPa 0,0 l/m 0,2 km/h (0 Bft) W-SW 247 -3,4 C 0,5 C 3,3 km/h (1 Bft)
18.02.2018 17:56 0,5 C -0,3 C 2,5 C 0,3 C 75 % 1028,2 hPa 0,0 l/m 0,2 km/h (0 Bft) W-SW 247 -3,4 C 0,5 C 0,0 km/h (0 Bft)
18.02.2018 17:54 0,5 C -0,3 C 2,5 C 0,3 C 75 % 1028,2 hPa 0,0 l/m 0,2 km/h (0 Bft) W-SW 247 -3,4 C 0,5 C 0,0 km/h (0 Bft)
18.02.2018 17:52 0,5 C -0,3 C 2,5 C 0,3 C 75 % 1028,2 hPa 0,0 l/m 0,2 km/h (0 Bft) S 180 -3,4 C 0,5 C 0,0 km/h (0 Bft)
18.02.2018 17:50 0,6 C -0,3 C 2,5 C 0,4 C 76 % 1028,2 hPa 0,0 l/m 0,2 km/h (0 Bft) W-SW 247 -3,1 C 0,6 C 0,0 km/h (0 Bft)
18.02.2018 17:48 0,6 C -0,3 C 2,5 C 0,4 C 76 % 1028,1 hPa 0,0 l/m 0,2 km/h (0 Bft) S 180 -3,1 C 0,6 C 0,0 km/h (0 Bft)
18.02.2018 17:46 0,6 C -0,3 C 2,5 C 0,4 C 76 % 1028,1 hPa 0,0 l/m 0,3 km/h (0 Bft) S-SO 157 -3,1 C 0,6 C 0,0 km/h (0 Bft)
18.02.2018 17:44 0,6 C -0,3 C 2,5 C 0,4 C 76 % 1028,1 hPa 0,0 l/m 0,6 km/h (0 Bft) S-SO 157 -3,1 C 0,6 C 2,1 km/h (1 Bft)
18.02.2018 17:42 0,6 C -0,2 C 2,5 C 0,4 C 76 % 1028,1 hPa 0,0 l/m 0,8 km/h (0 Bft) S 180 -3,1 C 0,6 C 2,1 km/h (1 Bft)
18.02.2018 17:40 0,5 C 0,1 C 2,5 C 0,5 C 76 % 1028,1 hPa 0,0 l/m 0,8 km/h (0 Bft) S-SO 157 -3,2 C 0,5 C 0,0 km/h (0 Bft)
18.02.2018 17:38 0,5 C 0,1 C 2,5 C 0,5 C 76 % 1028,1 hPa 0,0 l/m 0,8 km/h (0 Bft) SW 225 -3,2 C 0,5 C 3,3 km/h (1 Bft)
18.02.2018 17:36 0,4 C 0,1 C 2,5 C 0,5 C 75 % 1028,1 hPa 0,0 l/m 1,0 km/h (0 Bft) SW 225 -3,5 C 0,4 C 3,3 km/h (1 Bft)
18.02.2018 17:34 0,4 C 0,0 C 2,5 C 0,5 C 75 % 1028,1 hPa 0,0 l/m 0,6 km/h (0 Bft) W-SW 247 -3,5 C 0,4 C 2,1 km/h (1 Bft)
18.02.2018 17:32 0,4 C 0,0 C 2,5 C 0,5 C 75 % 1028,1 hPa 0,0 l/m 0,3 km/h (0 Bft) W-SW 247 -3,5 C 0,4 C 2,1 km/h (1 Bft)
18.02.2018 17:30 0,5 C -0,5 C 2,5 C 0,5 C 75 % 1028,1 hPa 0,0 l/m 0,3 km/h (0 Bft) W-SW 247 -3,4 C 0,5 C 0,0 km/h (0 Bft)
18.02.2018 17:29 0,5 C -0,5 C 2,5 C 0,5 C 75 % 1028,2 hPa 0,0 l/m 0,3 km/h (0 Bft) W-SW 247 -3,4 C 0,5 C 0,0 km/h (0 Bft)
18.02.2018 17:26 0,5 C -0,3 C 2,5 C 0,5 C 75 % 1028,2 hPa 0,0 l/m 0,0 km/h (0 Bft) W-SW 247 -3,4 C 0,5 C 0,0 km/h (0 Bft)
18.02.2018 17:24 0,6 C -0,3 C 2,5 C 0,6 C 75 % 1028,2 hPa 0,0 l/m 0,0 km/h (0 Bft) S-SW 202 -3,3 C 0,6 C 0,0 km/h (0 Bft)
18.02.2018 17:22 0,6 C -0,5 C 2,5 C 0,6 C 75 % 1028,2 hPa 0,0 l/m 0,0 km/h (0 Bft) W-SW 247 -3,3 C 0,6 C 0,0 km/h (0 Bft)
18.02.2018 17:20 0,6 C -0,3 C 2,5 C 0,6 C 75 % 1028,2 hPa 0,0 l/m 0,0 km/h (0 Bft) N-NW 337 -3,3 C 0,6 C 0,0 km/h (0 Bft)
18.02.2018 17:18 0,6 C -0,3 C 2,5 C 0,7 C 74 % 1028,2 hPa 0,0 l/m 0,0 km/h (0 Bft) N-NW 337 -3,5 C 0,6 C 0,0 km/h (0 Bft)
18.02.2018 17:16 0,6 C -0,5 C 2,5 C 0,7 C 74 % 1028,2 hPa 0,1 l/m 0,0 km/h (0 Bft) N-NW 337 -3,5 C 0,6 C 0,0 km/h (0 Bft)
18.02.2018 17:14 0,7 C -0,3 C 2,4 C 0,7 C 74 % 1028,2 hPa 0,0 l/m 0,0 km/h (0 Bft) N-NW 337 -3,4 C 0,7 C 0,0 km/h (0 Bft)
18.02.2018 17:12 0,7 C -0,3 C 2,4 C 0,7 C 74 % 1028,2 hPa 0,0 l/m 0,0 km/h (0 Bft) N-NW 337 -3,4 C 0,7 C 0,0 km/h (0 Bft)
18.02.2018 17:10 0,8 C -0,2 C 2,4 C 0,7 C 74 % 1028,2 hPa 0,0 l/m 0,0 km/h (0 Bft) N-NW 337 -3,3 C 0,8 C 0,0 km/h (0 Bft)
18.02.2018 17:08 0,8 C -0,2 C 2,4 C 0,7 C 74 % 1028,2 hPa 0,0 l/m 0,0 km/h (0 Bft) N-NW 337 -3,3 C 0,8 C 0,0 km/h (0 Bft)
18.02.2018 17:06 0,9 C 0,0 C 2,4 C 0,7 C 73 % 1028,2 hPa 0,0 l/m 0,0 km/h (0 Bft) N-NW 337 -3,4 C 0,9 C 0,0 km/h (0 Bft)
18.02.2018 17:04 1,0 C 0,0 C 2,4 C 0,8 C 73 % 1028,2 hPa 0,0 l/m 0,0 km/h (0 Bft) N-NW 337 -3,3 C 1,0 C 0,0 km/h (0 Bft)
18.02.2018 17:02 1,0 C 0,0 C 2,3 C 0,7 C 73 % 1028,2 hPa 0,0 l/m 0,0 km/h (0 Bft) N-NW 337 -3,3 C 1,0 C 0,0 km/h (0 Bft)
18.02.2018 17:00 1,0 C -0,2 C 2,3 C 0,8 C 73 % 1028,2 hPa 0,0 l/m 0,2 km/h (0 Bft) SW 225 -3,3 C 1,0 C 0,0 km/h (0 Bft)
18.02.2018 16:58 1,1 C -0,2 C 2,3 C 0,8 C 72 % 1028,2 hPa 0,0 l/m 0,3 km/h (0 Bft) SW 225 -3,4 C 1,1 C 0,0 km/h (0 Bft)
18.02.2018 16:56 1,1 C 0,0 C 2,3 C 0,8 C 72 % 1028,2 hPa 0,0 l/m 0,3 km/h (0 Bft) SW 225 -3,4 C 1,1 C 0,0 km/h (0 Bft)
18.02.2018 16:54 1,2 C 0,1 C 2,3 C 0,8 C 72 % 1028,2 hPa 0,0 l/m 0,3 km/h (0 Bft) SW 225 -3,3 C 1,2 C 0,0 km/h (0 Bft)
18.02.2018 16:52 1,2 C 0,1 C 2,3 C 0,8 C 72 % 1028,2 hPa 0,0 l/m 0,3 km/h (0 Bft) SW 225 -3,3 C 1,2 C 2,1 km/h (1 Bft)
18.02.2018 16:50 1,3 C 0,1 C 2,3 C 0,8 C 72 % 1028,2 hPa 0,0 l/m 0,3 km/h (0 Bft) W-SW 247 -3,2 C 1,3 C 2,5 km/h (1 Bft)
18.02.2018 16:48 1,3 C 0,1 C 2,3 C 0,9 C 72 % 1028,2 hPa 0,0 l/m 0,0 km/h (0 Bft) W-SW 247 -3,2 C 1,3 C 2,5 km/h (1 Bft)
18.02.2018 16:46 1,4 C 0,2 C 2,3 C 0,9 C 72 % 1028,2 hPa 0,0 l/m 0,0 km/h (0 Bft) W-SW 247 -3,1 C 1,4 C 0,0 km/h (0 Bft)
18.02.2018 16:44 1,4 C 0,3 C 2,4 C 0,9 C 72 % 1028,2 hPa 0,0 l/m 0,0 km/h (0 Bft) W-SW 247 -3,1 C 1,4 C 0,0 km/h (0 Bft)
18.02.2018 16:42 1,4 C 0,3 C 2,3 C 0,9 C 71 % 1028,2 hPa 0,1 l/m 0,0 km/h (0 Bft) S 180 -3,3 C 1,4 C 0,0 km/h (0 Bft)
18.02.2018 16:40 1,4 C 0,3 C 2,4 C 0,9 C 71 % 1028,2 hPa 0,0 l/m 0,0 km/h (0 Bft) S-SO 157 -3,3 C 1,4 C 0,0 km/h (0 Bft)
18.02.2018 16:38 1,5 C 0,3 C 2,3 C 0,9 C 71 % 1028,2 hPa 0,0 l/m 0,0 km/h (0 Bft) O-SO 112 -3,2 C 1,5 C 0,0 km/h (0 Bft)
18.02.2018 16:36 1,5 C 0,3 C 2,3 C 1,0 C 71 % 1028,2 hPa 0,0 l/m 0,0 km/h (0 Bft) SO 135 -3,2 C 1,5 C 0,0 km/h (0 Bft)
18.02.2018 16:34 1,5 C 0,3 C 2,3 C 1,0 C 71 % 1028,2 hPa 0,0 l/m 0,0 km/h (0 Bft) SO 135 -3,2 C 1,5 C 0,0 km/h (0 Bft)
18.02.2018 16:32 1,6 C 0,3 C 2,3 C 1,0 C 71 % 1028,2 hPa 0,0 l/m 0,0 km/h (0 Bft) W 270 -3,1 C 1,6 C 0,0 km/h (0 Bft)
18.02.2018 16:30 1,6 C 0,4 C 2,3 C 1,0 C 71 % 1028,2 hPa 0,0 l/m 0,0 km/h (0 Bft) W 270 -3,1 C 1,6 C 0,0 km/h (0 Bft)
18.02.2018 16:28 1,6 C 0,4 C 2,3 C 1,0 C 71 % 1028,1 hPa 0,0 l/m 0,0 km/h (0 Bft) W 270 -3,1 C 1,6 C 0,0 km/h (0 Bft)
18.02.2018 16:26 1,6 C 0,4 C 2,3 C 1,0 C 71 % 1028,1 hPa 0,0 l/m 0,0 km/h (0 Bft) SW 225 -3,1 C 1,6 C 0,0 km/h (0 Bft)
18.02.2018 16:24 1,7 C 0,7 C 2,3 C 1,1 C 70 % 1028,1 hPa 0,0 l/m 0,0 km/h (0 Bft) SW 225 -3,2 C 1,7 C 0,0 km/h (0 Bft)
18.02.2018 16:22 1,7 C 0,7 C 2,3 C 1,1 C 70 % 1028,1 hPa 0,0 l/m 0,0 km/h (0 Bft) W-SW 247 -3,2 C 1,7 C 0,0 km/h (0 Bft)
18.02.2018 16:20 1,8 C 0,7 C 2,3 C 1,1 C 70 % 1028,1 hPa 0,0 l/m 0,0 km/h (0 Bft) SW 225 -3,1 C 1,8 C 0,0 km/h (0 Bft)
18.02.2018 16:18 1,8 C 0,7 C 2,3 C 1,1 C 70 % 1028,1 hPa 0,0 l/m 0,3 km/h (0 Bft) W-SW 247 -3,1 C 1,8 C 0,0 km/h (0 Bft)
18.02.2018 16:16 1,9 C 0,8 C 2,3 C 1,1 C 70 % 1028,1 hPa 0,0 l/m 0,5 km/h (0 Bft) W-SW 247 -3,0 C 1,9 C 0,0 km/h (0 Bft)
18.02.2018 16:14 2,0 C 0,7 C 2,3 C 1,1 C 70 % 1028,1 hPa 0,0 l/m 0,5 km/h (0 Bft) W-SW 247 -2,9 C 2,0 C 0,0 km/h (0 Bft)
18.02.2018 16:12 2,0 C 0,7 C 2,3 C 1,1 C 70 % 1028,1 hPa 0,1 l/m 0,5 km/h (0 Bft) S-SW 202 -2,9 C 2,0 C 0,0 km/h (0 Bft)
18.02.2018 16:10 2,2 C 0,7 C 2,3 C 1,2 C 70 % 1028,1 hPa 0,0 l/m 0,6 km/h (0 Bft) SW 225 -2,7 C 2,2 C 4,4 km/h (1 Bft)
18.02.2018 16:08 2,2 C 0,7 C 2,3 C 1,1 C 70 % 1028,1 hPa 0,0 l/m 0,5 km/h (0 Bft) W-SW 247 -2,7 C 2,2 C 4,4 km/h (1 Bft)
18.02.2018 16:06 2,2 C 0,7 C 2,3 C 1,2 C 70 % 1028,1 hPa 0,0 l/m 0,8 km/h (0 Bft) S 180 -2,7 C 2,2 C 0,0 km/h (0 Bft)
18.02.2018 16:04 2,2 C 0,8 C 2,3 C 1,2 C 70 % 1028,1 hPa 0,0 l/m 1,1 km/h (1 Bft) S 180 -2,7 C 2,2 C 2,1 km/h (1 Bft)
18.02.2018 16:02 2,2 C 0,8 C 2,3 C 1,2 C 70 % 1028,1 hPa 0,0 l/m 1,1 km/h (1 Bft) W 270 -2,7 C 2,2 C 2,5 km/h (1 Bft)
18.02.2018 16:00 2,2 C 0,8 C 2,3 C 1,2 C 70 % 1028,1 hPa 0,0 l/m 1,3 km/h (1 Bft) SW 225 -2,7 C 2,2 C 2,5 km/h (1 Bft)
18.02.2018 15:58 2,2 C 0,9 C 2,3 C 1,2 C 70 % 1028,1 hPa 0,0 l/m 1,6 km/h (1 Bft) W-SW 247 -2,7 C 2,2 C 2,7 km/h (1 Bft)
18.02.2018 15:56 2,3 C 0,9 C 2,3 C 1,3 C 70 % 1028,1 hPa 0,0 l/m 1,8 km/h (1 Bft) W-NW 292 -2,6 C 2,3 C 2,7 km/h (1 Bft)
18.02.2018 15:54 2,3 C 0,9 C 2,3 C 1,2 C 70 % 1028,1 hPa 0,0 l/m 1,6 km/h (1 Bft) W-NW 292 -2,6 C 2,3 C 2,7 km/h (1 Bft)
18.02.2018 15:52 2,3 C 0,9 C 2,3 C 1,3 C 70 % 1028,1 hPa 0,1 l/m 1,9 km/h (1 Bft) W-SW 247 -2,6 C 2,3 C 3,5 km/h (1 Bft)
18.02.2018 15:50 2,4 C 0,9 C 2,3 C 1,3 C 70 % 1028,1 hPa 0,0 l/m 2,3 km/h (1 Bft) W 270 -2,5 C 2,4 C 3,5 km/h (1 Bft)
18.02.2018 15:49 2,4 C 0,9 C 2,3 C 1,3 C 70 % 1028,2 hPa 0,0 l/m 2,1 km/h (1 Bft) W 270 -2,5 C 2,4 C 2,7 km/h (1 Bft)
18.02.2018 15:46 2,4 C 0,9 C 2,3 C 1,3 C 70 % 1028,2 hPa 0,0 l/m 2,1 km/h (1 Bft) W 270 -2,5 C 2,4 C 3,9 km/h (1 Bft)
18.02.2018 15:44 2,4 C 0,9 C 2,3 C 1,3 C 70 % 1028,2 hPa 0,0 l/m 2,4 km/h (1 Bft) W 270 -2,5 C 2,4 C 4,1 km/h (1 Bft)
18.02.2018 15:42 2,5 C 1,0 C 2,3 C 1,4 C 70 % 1028,2 hPa 0,0 l/m 2,4 km/h (1 Bft) W-NW 292 -2,4 C 2,5 C 4,1 km/h (1 Bft)
18.02.2018 15:40 2,5 C 1,0 C 2,3 C 1,4 C 70 % 1028,2 hPa 0,0 l/m 2,4 km/h (1 Bft) W 270 -2,4 C 2,5 C 3,9 km/h (1 Bft)
18.02.2018 15:38 2,5 C 1,0 C 2,3 C 1,4 C 70 % 1028,2 hPa 0,0 l/m 2,7 km/h (1 Bft) SW 225 -2,4 C 2,5 C 5,2 km/h (1 Bft)
18.02.2018 15:36 2,5 C 1,0 C 2,3 C 1,4 C 70 % 1028,2 hPa 0,0 l/m 2,7 km/h (1 Bft) W 270 -2,4 C 2,5 C 5,2 km/h (1 Bft)
18.02.2018 15:34 2,6 C 1,0 C 2,3 C 1,4 C 70 % 1028,2 hPa 0,0 l/m 2,4 km/h (1 Bft) W 270 -2,3 C 2,6 C 5,2 km/h (1 Bft)
18.02.2018 15:32 2,6 C 1,0 C 2,3 C 1,4 C 70 % 1028,2 hPa 0,1 l/m 2,1 km/h (1 Bft) W-NW 292 -2,3 C 2,6 C 3,9 km/h (1 Bft)
18.02.2018 15:30 2,6 C 1,1 C 2,4 C 1,4 C 70 % 1028,2 hPa 0,0 l/m 2,1 km/h (1 Bft) W 270 -2,3 C 2,6 C 3,9 km/h (1 Bft)
18.02.2018 15:28 2,6 C 1,1 C 2,4 C 1,5 C 70 % 1028,1 hPa 0,0 l/m 1,8 km/h (1 Bft) W 270 -2,3 C 2,6 C 3,9 km/h (1 Bft)
18.02.2018 15:26 2,6 C 1,1 C 2,4 C 1,5 C 70 % 1028,1 hPa 0,0 l/m 1,8 km/h (1 Bft) W-NW 292 -2,3 C 2,6 C 2,9 km/h (1 Bft)
18.02.2018 15:24 2,6 C 1,0 C 2,4 C 1,5 C 70 % 1028,1 hPa 0,0 l/m 1,4 km/h (1 Bft) NW 315 -2,3 C 2,6 C 0,0 km/h (0 Bft)
18.02.2018 15:22 2,6 C 1,0 C 2,4 C 1,5 C 70 % 1028,1 hPa 0,0 l/m 1,6 km/h (1 Bft) N-NW 337 -2,3 C 2,6 C 3,7 km/h (1 Bft)
18.02.2018 15:20 2,7 C 1,0 C 2,4 C 1,5 C 70 % 1028,1 hPa 0,0 l/m 1,6 km/h (1 Bft) W-NW 292 -2,2 C 2,7 C 3,7 km/h (1 Bft)
18.02.2018 15:18 2,7 C 1,0 C 2,4 C 1,5 C 70 % 1028,1 hPa 0,0 l/m 1,9 km/h (1 Bft) NW 315 -2,2 C 2,7 C 3,9 km/h (1 Bft)
18.02.2018 15:16 2,7 C 1,1 C 2,4 C 1,5 C 70 % 1028,1 hPa 0,1 l/m 2,3 km/h (1 Bft) W 270 -2,2 C 2,7 C 3,9 km/h (1 Bft)
18.02.2018 15:14 2,7 C 1,1 C 2,4 C 1,5 C 70 % 1028,1 hPa 0,0 l/m 2,3 km/h (1 Bft) N-NW 337 -2,2 C 2,7 C 3,5 km/h (1 Bft)
18.02.2018 15:12 2,8 C 1,1 C 2,4 C 1,5 C 70 % 1028,1 hPa 0,0 l/m 2,6 km/h (1 Bft) N-NW 337 -2,1 C 2,8 C 3,5 km/h (1 Bft)
18.02.2018 15:10 2,8 C 1,1 C 2,4 C 1,5 C 70 % 1028,1 hPa 0,0 l/m 2,4 km/h (1 Bft) NW 315 -2,1 C 2,8 C 4,2 km/h (1 Bft)
18.02.2018 15:08 2,8 C 1,1 C 2,4 C 1,5 C 70 % 1027,9 hPa 0,0 l/m 2,7 km/h (1 Bft) N-NW 337 -2,1 C 2,8 C 5,6 km/h (1 Bft)
18.02.2018 15:06 2,8 C 1,1 C 2,4 C 1,6 C 70 % 1027,9 hPa 0,0 l/m 2,6 km/h (1 Bft) NW 315 -2,1 C 2,8 C 5,6 km/h (1 Bft)
18.02.2018 15:04 2,8 C 1,3 C 2,4 C 1,6 C 70 % 1027,9 hPa 0,1 l/m 2,4 km/h (1 Bft) N-NW 337 -2,1 C 2,8 C 5,2 km/h (1 Bft)
18.02.2018 15:02 2,8 C 1,4 C 2,4 C 1,5 C 70 % 1027,9 hPa 0,0 l/m 2,3 km/h (1 Bft) NW 315 -2,1 C 2,8 C 3,7 km/h (1 Bft)
18.02.2018 15:00 2,8 C 1,4 C 2,4 C 1,6 C 70 % 1027,9 hPa 0,0 l/m 2,4 km/h (1 Bft) W-NW 292 -2,1 C 2,8 C 3,7 km/h (1 Bft)
18.02.2018 14:58 2,8 C 1,4 C 2,4 C 1,6 C 70 % 1027,9 hPa 0,0 l/m 2,1 km/h (1 Bft) N-NW 337 -2,1 C 2,8 C 3,7 km/h (1 Bft)
18.02.2018 14:56 2,8 C 1,4 C 2,4 C 1,6 C 70 % 1027,9 hPa 0,0 l/m 1,6 km/h (1 Bft) N-NW 337 -2,1 C 2,8 C 3,3 km/h (1 Bft)
18.02.2018 14:54 2,8 C 1,4 C 2,4 C 1,6 C 70 % 1027,9 hPa 0,0 l/m 1,4 km/h (1 Bft) N-NW 337 -2,1 C 2,8 C 2,1 km/h (1 Bft)
18.02.2018 14:52 2,8 C 1,3 C 2,4 C 1,6 C 70 % 1027,9 hPa 0,0 l/m 1,3 km/h (1 Bft) NW 315 -2,1 C 2,8 C 4,2 km/h (1 Bft)
18.02.2018 14:50 2,8 C 1,4 C 2,4 C 1,6 C 70 % 1027,9 hPa 0,0 l/m 1,0 km/h (0 Bft) NW 315 -2,1 C 2,8 C 4,2 km/h (1 Bft)
18.02.2018 14:48 2,8 C 1,4 C 2,4 C 1,5 C 70 % 1027,8 hPa 0,0 l/m 0,8 km/h (0 Bft) W 270 -2,1 C 2,8 C 2,9 km/h (1 Bft)
18.02.2018 14:46 2,8 C 1,4 C 2,4 C 1,5 C 70 % 1027,8 hPa 0,0 l/m 0,6 km/h (0 Bft) N-NW 337 -2,1 C 2,8 C 2,9 km/h (1 Bft)
18.02.2018 14:44 2,8 C 1,5 C 2,4 C 1,5 C 70 % 1027,8 hPa 0,0 l/m 0,6 km/h (0 Bft) W 270 -2,1 C 2,8 C 2,9 km/h (1 Bft)
18.02.2018 14:42 2,8 C 1,5 C 2,4 C 1,5 C 70 % 1027,8 hPa 0,0 l/m 0,6 km/h (0 Bft) NW 315 -2,1 C 2,8 C 2,9 km/h (1 Bft)
18.02.2018 14:40 2,8 C 1,5 C 2,4 C 1,5 C 70 % 1027,8 hPa 0,0 l/m 0,3 km/h (0 Bft) SW 225 -2,1 C 2,8 C 2,3 km/h (1 Bft)
18.02.2018 14:38 2,9 C 1,4 C 2,4 C 1,6 C 71 % 1027,8 hPa 0,0 l/m 0,2 km/h (0 Bft) NW 315 -1,8 C 2,9 C 2,3 km/h (1 Bft)
18.02.2018 14:36 2,8 C 1,6 C 2,4 C 1,5 C 71 % 1027,8 hPa 0,0 l/m 0,5 km/h (0 Bft) W-SW 247 -1,9 C 2,8 C 0,0 km/h (0 Bft)
18.02.2018 14:34 2,8 C 1,6 C 2,4 C 1,5 C 71 % 1027,8 hPa 0,0 l/m 0,3 km/h (0 Bft) W-SW 247 -1,9 C 2,8 C 0,0 km/h (0 Bft)
18.02.2018 14:32 2,8 C 1,6 C 2,4 C 1,5 C 71 % 1027,8 hPa 0,0 l/m 0,5 km/h (0 Bft) W-SW 247 -1,9 C 2,8 C 0,0 km/h (0 Bft)
18.02.2018 14:30 2,7 C 1,7 C 2,4 C 1,5 C 71 % 1027,8 hPa 0,0 l/m 1,0 km/h (0 Bft) NW 315 -2,0 C 2,7 C 0,0 km/h (0 Bft)
18.02.2018 14:28 2,7 C 1,7 C 2,4 C 1,5 C 71 % 1027,9 hPa 0,0 l/m 1,3 km/h (1 Bft) NW 315 -2,0 C 2,7 C 3,3 km/h (1 Bft)
18.02.2018 14:26 2,7 C 1,7 C 2,4 C 1,5 C 71 % 1027,9 hPa 0,0 l/m 1,3 km/h (1 Bft) W-NW 292 -2,0 C 2,7 C 3,3 km/h (1 Bft)
18.02.2018 14:24 2,7 C 1,9 C 2,4 C 1,5 C 71 % 1027,9 hPa 0,0 l/m 1,6 km/h (1 Bft) NO 45 -2,0 C 2,7 C 2,9 km/h (1 Bft)
18.02.2018 14:22 2,7 C 1,7 C 2,4 C 1,5 C 71 % 1027,9 hPa 0,0 l/m 1,9 km/h (1 Bft) NW 315 -2,0 C 2,7 C 2,9 km/h (1 Bft)
18.02.2018 14:20 2,7 C 1,7 C 2,4 C 1,5 C 71 % 1027,9 hPa 0,0 l/m 2,1 km/h (1 Bft) NW 315 -2,0 C 2,7 C 2,5 km/h (1 Bft)
18.02.2018 14:18 2,7 C 1,6 C 2,4 C 1,5 C 71 % 1027,9 hPa 0,0 l/m 2,1 km/h (1 Bft) W 270 -2,0 C 2,7 C 2,1 km/h (1 Bft)
18.02.2018 14:16 2,7 C 1,7 C 2,4 C 1,5 C 71 % 1027,9 hPa 0,0 l/m 2,3 km/h (1 Bft) NW 315 -2,0 C 2,7 C 4,1 km/h (1 Bft)
18.02.2018 14:14 2,6 C 1,7 C 2,4 C 1,4 C 71 % 1027,9 hPa 0,0 l/m 2,3 km/h (1 Bft) NW 315 -2,1 C 2,6 C 4,6 km/h (1 Bft)
18.02.2018 14:12 2,5 C 1,6 C 2,4 C 1,4 C 71 % 1027,9 hPa 0,0 l/m 2,3 km/h (1 Bft) N-NW 337 -2,2 C 2,5 C 4,6 km/h (1 Bft)
18.02.2018 14:10 2,5 C 1,7 C 2,4 C 1,4 C 71 % 1027,9 hPa 0,0 l/m 2,1 km/h (1 Bft) W-NW 292 -2,2 C 2,5 C 4,4 km/h (1 Bft)
18.02.2018 14:08 2,5 C 1,7 C 2,4 C 1,4 C 71 % 1028,0 hPa 0,0 l/m 2,3 km/h (1 Bft) N 360 -2,2 C 2,5 C 5,2 km/h (1 Bft)
18.02.2018 14:06 2,5 C 1,5 C 2,4 C 1,4 C 71 % 1028,0 hPa 0,0 l/m 2,1 km/h (1 Bft) NW 315 -2,2 C 2,5 C 5,2 km/h (1 Bft)
18.02.2018 14:04 2,5 C 1,4 C 2,4 C 1,4 C 71 % 1028,0 hPa 0,0 l/m 1,9 km/h (1 Bft) NW 315 -2,2 C 2,5 C 4,2 km/h (1 Bft)
18.02.2018 14:02 2,6 C 1,3 C 2,4 C 1,4 C 71 % 1028,0 hPa 0,0 l/m 2,1 km/h (1 Bft) NW 315 -2,1 C 2,6 C 4,2 km/h (1 Bft)
18.02.2018 14:00 2,7 C 1,4 C 2,4 C 1,5 C 71 % 1028,0 hPa 0,0 l/m 1,9 km/h (1 Bft) W 270 -2,0 C 2,7 C 4,1 km/h (1 Bft)
18.02.2018 13:58 2,7 C 1,4 C 2,4 C 1,5 C 71 % 1028,0 hPa 0,0 l/m 2,1 km/h (1 Bft) N-NW 337 -2,0 C 2,7 C 3,5 km/h (1 Bft)
18.02.2018 13:56 2,7 C 1,5 C 2,4 C 1,5 C 71 % 1028,0 hPa 0,0 l/m 2,1 km/h (1 Bft) W-NW 292 -2,0 C 2,7 C 3,1 km/h (1 Bft)
18.02.2018 13:54 2,8 C 1,5 C 2,4 C 1,4 C 71 % 1028,0 hPa 0,0 l/m 2,4 km/h (1 Bft) N-NW 337 -1,9 C 2,8 C 2,9 km/h (1 Bft)
18.02.2018 13:52 2,8 C 1,5 C 2,4 C 1,5 C 71 % 1028,0 hPa 0,0 l/m 2,3 km/h (1 Bft) NW 315 -1,9 C 2,8 C 2,9 km/h (1 Bft)
18.02.2018 13:50 2,9 C 1,5 C 2,4 C 1,5 C 71 % 1028,0 hPa 0,0 l/m 2,1 km/h (1 Bft) S-SO 157 -1,8 C 2,9 C 4,2 km/h (1 Bft)
18.02.2018 13:48 2,9 C 1,5 C 2,4 C 1,4 C 71 % 1027,8 hPa 0,0 l/m 1,9 km/h (1 Bft) W-NW 292 -1,8 C 2,9 C 5,0 km/h (1 Bft)
18.02.2018 13:46 3,0 C 1,4 C 2,4 C 1,5 C 71 % 1027,8 hPa 0,0 l/m 1,9 km/h (1 Bft) N-NW 337 -1,7 C 3,0 C 5,0 km/h (1 Bft)
18.02.2018 13:44 3,0 C 1,4 C 2,4 C 1,5 C 71 % 1027,8 hPa 0,0 l/m 1,8 km/h (1 Bft) NW 315 -1,7 C 3,0 C 4,2 km/h (1 Bft)
18.02.2018 13:42 3,0 C 1,5 C 2,4 C 1,4 C 71 % 1027,8 hPa 0,0 l/m 1,4 km/h (1 Bft) W-SW 247 -1,7 C 3,0 C 1,9 km/h (1 Bft)
18.02.2018 13:40 3,1 C 1,5 C 2,4 C 1,4 C 71 % 1027,8 hPa 0,0 l/m 1,4 km/h (1 Bft) N-NW 337 -1,6 C 3,1 C 2,7 km/h (1 Bft)
18.02.2018 13:38 3,1 C 1,5 C 2,4 C 1,4 C 71 % 1027,8 hPa 0,0 l/m 1,4 km/h (1 Bft) W 270 -1,6 C 3,1 C 4,6 km/h (1 Bft)
18.02.2018 13:36 3,1 C 1,5 C 2,4 C 1,5 C 71 % 1027,8 hPa 0,0 l/m 1,4 km/h (1 Bft) NW 315 -1,6 C 3,1 C 4,6 km/h (1 Bft)
18.02.2018 13:34 3,1 C 1,5 C 2,4 C 1,4 C 71 % 1027,8 hPa 0,0 l/m 1,4 km/h (1 Bft) NW 315 -1,6 C 3,1 C 0,0 km/h (0 Bft)
18.02.2018 13:32 3,2 C 1,6 C 2,4 C 1,5 C 71 % 1027,8 hPa 0,0 l/m 1,8 km/h (1 Bft) NW 315 -1,5 C 3,2 C 2,5 km/h (1 Bft)
18.02.2018 13:30 3,2 C 1,9 C 2,4 C 1,5 C 72 % 1027,8 hPa 0,0 l/m 1,9 km/h (1 Bft) S 180 -1,3 C 3,2 C 2,5 km/h (1 Bft)
18.02.2018 13:28 3,2 C 1,9 C 2,4 C 1,4 C 72 % 1028,0 hPa 0,0 l/m 2,3 km/h (1 Bft) W-NW 292 -1,3 C 3,2 C 3,5 km/h (1 Bft)
18.02.2018 13:26 3,2 C 1,9 C 2,4 C 1,4 C 72 % 1028,0 hPa 0,0 l/m 1,9 km/h (1 Bft) N-NW 337 -1,3 C 3,2 C 4,4 km/h (1 Bft)
18.02.2018 13:24 3,1 C 1,9 C 2,4 C 1,4 C 73 % 1028,0 hPa 0,0 l/m 1,8 km/h (1 Bft) NW 315 -1,3 C 3,1 C 4,4 km/h (1 Bft)
18.02.2018 13:22 3,1 C 1,9 C 2,4 C 1,3 C 73 % 1028,0 hPa 0,0 l/m 1,6 km/h (1 Bft) N-NW 337 -1,3 C 3,1 C 2,7 km/h (1 Bft)
18.02.2018 13:20 3,1 C 2,0 C 2,4 C 1,3 C 73 % 1028,0 hPa 0,0 l/m 1,4 km/h (1 Bft) N-NW 337 -1,3 C 3,1 C 2,7 km/h (1 Bft)
18.02.2018 13:18 3,0 C 1,9 C 2,4 C 1,3 C 73 % 1028,0 hPa 0,0 l/m 1,0 km/h (0 Bft) NW 315 -1,4 C 3,0 C 2,3 km/h (1 Bft)
18.02.2018 13:16 3,0 C 1,9 C 2,4 C 1,3 C 73 % 1028,0 hPa 0,0 l/m 1,0 km/h (0 Bft) N-NW 337 -1,4 C 3,0 C 2,5 km/h (1 Bft)
18.02.2018 13:14 2,9 C 1,7 C 2,4 C 1,3 C 73 % 1028,0 hPa 0,0 l/m 1,4 km/h (1 Bft) NW 315 -1,5 C 2,9 C 4,1 km/h (1 Bft)
18.02.2018 13:12 2,9 C 1,6 C 2,4 C 1,3 C 73 % 1028,0 hPa 0,0 l/m 1,3 km/h (1 Bft) N-NW 337 -1,5 C 2,9 C 4,1 km/h (1 Bft)
18.02.2018 13:10 2,7 C 1,5 C 2,4 C 1,3 C 73 % 1028,0 hPa 0,0 l/m 1,3 km/h (1 Bft) NW 315 -1,6 C 2,7 C 0,0 km/h (0 Bft)
18.02.2018 13:08 2,7 C 1,5 C 2,4 C 1,2 C 73 % 1028,1 hPa 0,0 l/m 1,4 km/h (1 Bft) NW 315 -1,6 C 2,7 C 2,7 km/h (1 Bft)
18.02.2018 13:06 2,7 C 1,4 C 2,4 C 1,2 C 73 % 1028,1 hPa 0,0 l/m 1,4 km/h (1 Bft) N-NW 337 -1,6 C 2,7 C 2,7 km/h (1 Bft)
18.02.2018 13:04 2,7 C 1,3 C 2,4 C 1,2 C 73 % 1028,1 hPa 0,0 l/m 1,0 km/h (0 Bft) N 360 -1,6 C 2,7 C 2,5 km/h (1 Bft)
18.02.2018 13:02 2,7 C 1,3 C 2,4 C 1,2 C 73 % 1028,1 hPa 0,0 l/m 0,8 km/h (0 Bft) N-NW 337 -1,6 C 2,7 C 2,7 km/h (1 Bft)
18.02.2018 13:00 2,7 C 1,4 C 2,4 C 1,3 C 73 % 1028,1 hPa 0,0 l/m 0,6 km/h (0 Bft) W-SW 247 -1,6 C 2,7 C 3,1 km/h (1 Bft)
18.02.2018 12:58 2,7 C 1,4 C 2,4 C 1,2 C 73 % 1028,1 hPa 0,0 l/m 0,6 km/h (0 Bft) NW 315 -1,6 C 2,7 C 3,1 km/h (1 Bft)
18.02.2018 12:56 2,7 C 1,4 C 2,4 C 1,2 C 73 % 1028,1 hPa 0,0 l/m 0,5 km/h (0 Bft) O-SO 112 -1,6 C 2,7 C 0,0 km/h (0 Bft)
18.02.2018 12:54 2,7 C 1,4 C 2,4 C 1,2 C 73 % 1028,1 hPa 0,0 l/m 0,8 km/h (0 Bft) NW 315 -1,6 C 2,7 C 0,0 km/h (0 Bft)
18.02.2018 12:52 2,6 C 1,4 C 2,4 C 1,2 C 73 % 1028,1 hPa 0,0 l/m 1,1 km/h (1 Bft) W-SW 247 -1,7 C 2,6 C 2,3 km/h (1 Bft)
18.02.2018 12:50 2,5 C 1,1 C 2,4 C 1,2 C 73 % 1028,1 hPa 0,0 l/m 1,4 km/h (1 Bft) W 270 -1,8 C 2,5 C 3,5 km/h (1 Bft)
18.02.2018 12:48 2,5 C 1,1 C 2,4 C 1,2 C 73 % 1028,2 hPa 0,0 l/m 1,4 km/h (1 Bft) W-NW 292 -1,8 C 2,5 C 3,5 km/h (1 Bft)
18.02.2018 12:46 2,5 C 1,1 C 2,4 C 1,2 C 73 % 1028,2 hPa 0,0 l/m 1,6 km/h (1 Bft) NW 315 -1,8 C 2,5 C 2,3 km/h (1 Bft)
18.02.2018 12:44 2,5 C 1,1 C 2,4 C 1,2 C 73 % 1028,2 hPa 0,0 l/m 1,4 km/h (1 Bft) N 360 -1,8 C 2,5 C 2,7 km/h (1 Bft)
18.02.2018 12:42 2,5 C 1,1 C 2,4 C 1,3 C 73 % 1028,2 hPa 0,0 l/m 1,3 km/h (1 Bft) W-NW 292 -1,8 C 2,5 C 3,1 km/h (1 Bft)
18.02.2018 12:40 2,5 C 1,3 C 2,4 C 1,2 C 73 % 1028,2 hPa 0,0 l/m 1,3 km/h (1 Bft) W-SW 247 -1,8 C 2,5 C 3,1 km/h (1 Bft)
18.02.2018 12:38 2,5 C 1,1 C 2,4 C 1,2 C 73 % 1028,2 hPa 0,0 l/m 1,0 km/h (0 Bft) N-NW 337 -1,8 C 2,5 C 3,1 km/h (1 Bft)
18.02.2018 12:36 2,5 C 1,4 C 2,4 C 1,2 C 73 % 1028,2 hPa 0,0 l/m 0,5 km/h (0 Bft) NW 315 -1,8 C 2,5 C 0,0 km/h (0 Bft)
18.02.2018 12:34 2,4 C 1,4 C 2,4 C 1,2 C 73 % 1028,2 hPa 0,0 l/m 0,5 km/h (0 Bft) NW 315 -1,9 C 2,4 C 1,9 km/h (1 Bft)
18.02.2018 12:32 2,4 C 1,3 C 2,4 C 1,2 C 73 % 1028,2 hPa 0,0 l/m 0,5 km/h (0 Bft) NW 315 -1,9 C 2,4 C 4,1 km/h (1 Bft)
18.02.2018 12:30 2,3 C 1,1 C 2,4 C 1,2 C 73 % 1028,2 hPa 0,0 l/m 0,2 km/h (0 Bft) W-SW 247 -2,0 C 2,3 C 4,1 km/h (1 Bft)
18.02.2018 12:28 2,3 C 1,1 C 2,4 C 1,2 C 73 % 1027,9 hPa 0,0 l/m 0,0 km/h (0 Bft) W-NW 292 -2,0 C 2,3 C 0,0 km/h (0 Bft)
18.02.2018 12:26 2,2 C 1,1 C 2,4 C 1,2 C 72 % 1027,9 hPa 0,0 l/m 0,0 km/h (0 Bft) W-NW 292 -2,3 C 2,2 C 0,0 km/h (0 Bft)
18.02.2018 12:24 2,2 C 1,1 C 2,4 C 1,1 C 72 % 1027,9 hPa 0,0 l/m 0,0 km/h (0 Bft) W-NW 292 -2,3 C 2,2 C 0,0 km/h (0 Bft)
18.02.2018 12:22 2,1 C 1,1 C 2,4 C 1,1 C 71 % 1027,9 hPa 0,0 l/m 0,0 km/h (0 Bft) W-NW 292 -2,6 C 2,1 C 0,0 km/h (0 Bft)
18.02.2018 12:20 2,1 C 1,1 C 2,4 C 1,1 C 71 % 1027,9 hPa 0,0 l/m 0,0 km/h (0 Bft) W-NW 292 -2,6 C 2,1 C 0,0 km/h (0 Bft)
18.02.2018 12:18 2,1 C 1,4 C 2,4 C 1,1 C 70 % 1027,9 hPa 0,0 l/m 0,0 km/h (0 Bft) W-NW 292 -2,8 C 2,1 C 0,0 km/h (0 Bft)
18.02.2018 12:16 2,1 C 1,4 C 2,4 C 1,1 C 70 % 1027,9 hPa 0,0 l/m 0,0 km/h (0 Bft) W-NW 292 -2,8 C 2,1 C 0,0 km/h (0 Bft)
18.02.2018 12:14 2,2 C 1,4 C 2,4 C 1,1 C 70 % 1027,9 hPa 0,0 l/m 0,0 km/h (0 Bft) W-NW 292 -2,7 C 2,2 C 0,0 km/h (0 Bft)
18.02.2018 12:12 2,2 C 1,1 C 2,4 C 1,1 C 70 % 1027,9 hPa 0,0 l/m 0,0 km/h (0 Bft) W-NW 292 -2,7 C 2,2 C 0,0 km/h (0 Bft)
18.02.2018 12:10 2,7 C 1,1 C 2,4 C 1,0 C 74 % 1027,9 hPa 0,0 l/m 0,0 km/h (0 Bft) W-NW 292 -1,5 C 2,7 C 0,0 km/h (0 Bft)
18.02.2018 12:08 2,7 C 1,1 C 2,4 C 1,0 C 74 % 1028,4 hPa 0,0 l/m 0,0 km/h (0 Bft) W-NW 292 -1,5 C 2,7 C 0,0 km/h (0 Bft)
18.02.2018 12:06 2,7 C 1,1 C 2,4 C 1,0 C 74 % 1028,4 hPa 0,0 l/m 0,0 km/h (0 Bft) W-NW 292 -1,5 C 2,7 C 0,0 km/h (0 Bft)
18.02.2018 12:04 2,7 C 1,1 C 2,4 C 1,0 C 74 % 1028,4 hPa 0,0 l/m 0,0 km/h (0 Bft) W-NW 292 -1,5 C 2,7 C 0,0 km/h (0 Bft)
18.02.2018 12:02 2,7 C 1,1 C 2,4 C 1,0 C 74 % 1028,4 hPa 0,0 l/m 0,0 km/h (0 Bft) W-NW 292 -1,5 C 2,7 C 0,0 km/h (0 Bft)
18.02.2018 12:00 2,7 C 1,1 C 2,4 C 1,0 C 74 % 1028,4 hPa 0,0 l/m 0,0 km/h (0 Bft) W-NW 292 -1,5 C 2,7 C 0,0 km/h (0 Bft)
18.02.2018 11:58 2,7 C 1,1 C 2,4 C 0,9 C 74 % 1028,4 hPa 0,0 l/m 0,0 km/h (0 Bft) W 270 -1,5 C 2,7 C 0,0 km/h (0 Bft)
18.02.2018 11:56 2,7 C 1,1 C 2,4 C 0,9 C 74 % 1028,4 hPa 0,0 l/m 0,0 km/h (0 Bft) W 270 -1,5 C 2,7 C 0,0 km/h (0 Bft)
18.02.2018 11:54 2,6 C 1,1 C 2,4 C 0,9 C 75 % 1028,4 hPa 0,0 l/m 0,0 km/h (0 Bft) W 270 -1,4 C 2,6 C 0,0 km/h (0 Bft)
18.02.2018 11:52 2,6 C 1,0 C 2,4 C 0,8 C 75 % 1028,4 hPa 0,0 l/m 0,0 km/h (0 Bft) W 270 -1,4 C 2,6 C 0,0 km/h (0 Bft)
18.02.2018 11:50 2,5 C 1,0 C 2,4 C 0,9 C 76 % 1028,4 hPa 0,0 l/m 0,0 km/h (0 Bft) W 270 -1,3 C 2,5 C 0,0 km/h (0 Bft)
18.02.2018 11:48 2,5 C 1,0 C 2,4 C 0,8 C 76 % 1028,1 hPa 0,0 l/m 0,0 km/h (0 Bft) W 270 -1,3 C 2,5 C 0,0 km/h (0 Bft)
18.02.2018 11:46 2,5 C 1,1 C 2,4 C 0,8 C 76 % 1028,1 hPa 0,0 l/m 0,0 km/h (0 Bft) W 270 -1,3 C 2,5 C 0,0 km/h (0 Bft)
18.02.2018 11:44 2,4 C 0,9 C 2,4 C 0,8 C 76 % 1028,1 hPa 0,0 l/m 0,0 km/h (0 Bft) W 270 -1,4 C 2,4 C 0,0 km/h (0 Bft)
18.02.2018 11:42 2,3 C 0,8 C 2,4 C 0,7 C 76 % 1028,1 hPa 0,0 l/m 0,0 km/h (0 Bft) W 270 -1,5 C 2,3 C 0,0 km/h (0 Bft)
18.02.2018 11:40 2,2 C 0,8 C 2,4 C 0,7 C 76 % 1028,1 hPa 0,0 l/m 0,0 km/h (0 Bft) W 270 -1,6 C 2,2 C 0,0 km/h (0 Bft)
18.02.2018 11:38 2,2 C 0,7 C 2,4 C 0,7 C 76 % 1028,1 hPa 0,0 l/m 0,0 km/h (0 Bft) W 270 -1,6 C 2,2 C 0,0 km/h (0 Bft)
18.02.2018 11:36 2,2 C 0,6 C 2,4 C 0,7 C 76 % 1028,1 hPa 0,0 l/m 0,0 km/h (0 Bft) W 270 -1,6 C 2,2 C 0,0 km/h (0 Bft)
18.02.2018 11:34 2,1 C 0,6 C 2,4 C 0,7 C 76 % 1028,1 hPa 0,0 l/m 0,0 km/h (0 Bft) W 270 -1,7 C 2,1 C 0,0 km/h (0 Bft)
18.02.2018 11:32 2,1 C 0,6 C 2,4 C 0,6 C 76 % 1028,1 hPa 0,0 l/m 0,0 km/h (0 Bft) W 270 -1,7 C 2,1 C 0,0 km/h (0 Bft)
18.02.2018 11:30 2,1 C 0,6 C 2,4 C 0,6 C 76 % 1028,1 hPa 0,0 l/m 0,0 km/h (0 Bft) W 270 -1,7 C 2,1 C 0,0 km/h (0 Bft)
18.02.2018 11:28 2,1 C 0,6 C 2,4 C 0,6 C 76 % 1028,0 hPa 0,0 l/m 0,0 km/h (0 Bft) W 270 -1,7 C 2,1 C 0,0 km/h (0 Bft)
18.02.2018 11:26 2,0 C 0,6 C 2,4 C 0,5 C 76 % 1028,0 hPa 0,0 l/m 0,0 km/h (0 Bft) W 270 -1,8 C 2,0 C 0,0 km/h (0 Bft)
18.02.2018 11:24 1,9 C 0,6 C 2,4 C 0,5 C 77 % 1028,0 hPa 0,0 l/m 0,0 km/h (0 Bft) W 270 -1,7 C 1,9 C 0,0 km/h (0 Bft)
18.02.2018 11:22 1,8 C 0,6 C 2,4 C 0,5 C 77 % 1028,0 hPa 0,0 l/m 0,0 km/h (0 Bft) W 270 -1,8 C 1,8 C 0,0 km/h (0 Bft)
18.02.2018 11:20 1,8 C 0,6 C 2,4 C 0,5 C 77 % 1028,0 hPa 0,0 l/m 0,0 km/h (0 Bft) W 270 -1,8 C 1,8 C 0,0 km/h (0 Bft)
18.02.2018 11:18 1,8 C 0,6 C 2,4 C 0,4 C 77 % 1028,0 hPa 0,0 l/m 0,0 km/h (0 Bft) W 270 -1,8 C 1,8 C 0,0 km/h (0 Bft)
18.02.2018 11:16 1,7 C 0,6 C 2,4 C 0,4 C 77 % 1028,0 hPa 0,0 l/m 0,0 km/h (0 Bft) W 270 -1,9 C 1,7 C 0,0 km/h (0 Bft)
18.02.2018 11:14 1,6 C 0,6 C 2,4 C 0,4 C 77 % 1028,0 hPa 0,0 l/m 0,0 km/h (0 Bft) W 270 -2,0 C 1,6 C 0,0 km/h (0 Bft)
18.02.2018 11:12 1,6 C 0,6 C 2,4 C 0,4 C 77 % 1028,0 hPa 0,0 l/m 0,0 km/h (0 Bft) W 270 -2,0 C 1,6 C 0,0 km/h (0 Bft)
18.02.2018 11:10 1,5 C 0,6 C 2,4 C 0,3 C 77 % 1028,0 hPa 0,0 l/m 0,0 km/h (0 Bft) W 270 -2,1 C 1,5 C 0,0 km/h (0 Bft)
18.02.2018 11:08 1,5 C 0,6 C 2,4 C 0,4 C 77 % 1027,9 hPa 0,0 l/m 0,0 km/h (0 Bft) W 270 -2,1 C 1,5 C 0,0 km/h (0 Bft)
18.02.2018 11:06 1,5 C 0,4 C 2,4 C 0,3 C 77 % 1027,9 hPa 0,0 l/m 0,0 km/h (0 Bft) W 270 -2,1 C 1,5 C 0,0 km/h (0 Bft)
18.02.2018 11:04 1,4 C 0,4 C 2,4 C 0,3 C 77 % 1027,9 hPa 0,0 l/m 0,0 km/h (0 Bft) W 270 -2,2 C 1,4 C 0,0 km/h (0 Bft)
18.02.2018 11:02 1,3 C 0,4 C 2,4 C 0,3 C 77 % 1027,9 hPa 0,0 l/m 0,0 km/h (0 Bft) W 270 -2,3 C 1,3 C 0,0 km/h (0 Bft)
18.02.2018 11:00 1,3 C 0,4 C 2,4 C 0,3 C 77 % 1027,9 hPa 0,0 l/m 0,0 km/h (0 Bft) W 270 -2,3 C 1,3 C 0,0 km/h (0 Bft)
18.02.2018 10:58 1,3 C 0,4 C 2,4 C 0,3 C 77 % 1027,9 hPa 0,0 l/m 0,0 km/h (0 Bft) W 270 -2,3 C 1,3 C 0,0 km/h (0 Bft)
18.02.2018 10:56 1,2 C 0,3 C 2,6 C 0,3 C 77 % 1027,9 hPa 0,0 l/m 0,0 km/h (0 Bft) W 270 -2,4 C 1,2 C 0,0 km/h (0 Bft)
18.02.2018 10:54 1,2 C 0,3 C 2,6 C 0,3 C 77 % 1027,9 hPa 0,0 l/m 0,0 km/h (0 Bft) W 270 -2,4 C 1,2 C 0,0 km/h (0 Bft)
18.02.2018 10:52 1,2 C 0,3 C 2,6 C 0,3 C 76 % 1027,9 hPa 0,0 l/m 0,0 km/h (0 Bft) W 270 -2,5 C 1,2 C 0,0 km/h (0 Bft)
18.02.2018 10:50 1,3 C 0,3 C 2,6 C 0,3 C 76 % 1027,9 hPa 0,0 l/m 0,0 km/h (0 Bft) W 270 -2,5 C 1,3 C 0,0 km/h (0 Bft)
18.02.2018 10:48 1,3 C 0,3 C 2,6 C 0,3 C 76 % 1027,4 hPa 0,0 l/m 0,0 km/h (0 Bft) W 270 -2,5 C 1,3 C 0,0 km/h (0 Bft)
18.02.2018 10:46 1,3 C 0,3 C 2,6 C 0,3 C 76 % 1027,4 hPa 0,0 l/m 0,0 km/h (0 Bft) W 270 -2,5 C 1,3 C 0,0 km/h (0 Bft)
18.02.2018 10:44 1,3 C 0,3 C 2,6 C 0,3 C 76 % 1027,4 hPa 0,0 l/m 0,0 km/h (0 Bft) W 270 -2,5 C 1,3 C 0,0 km/h (0 Bft)
18.02.2018 10:42 1,3 C 0,3 C 2,6 C 0,3 C 77 % 1027,4 hPa 0,0 l/m 0,0 km/h (0 Bft) W 270 -2,3 C 1,3 C 0,0 km/h (0 Bft)
18.02.2018 10:40 1,3 C 0,3 C 2,6 C 0,3 C 77 % 1027,4 hPa 0,0 l/m 0,0 km/h (0 Bft) W 270 -2,3 C 1,3 C 0,0 km/h (0 Bft)
18.02.2018 10:38 1,3 C 0,3 C 2,6 C 0,3 C 77 % 1027,4 hPa 0,0 l/m 0,0 km/h (0 Bft) W 270 -2,3 C 1,3 C 0,0 km/h (0 Bft)
18.02.2018 10:36 1,3 C 0,3 C 2,6 C 0,2 C 77 % 1027,4 hPa 0,0 l/m 0,0 km/h (0 Bft) W 270 -2,3 C 1,3 C 0,0 km/h (0 Bft)
18.02.2018 10:34 1,3 C 0,3 C 2,6 C 0,2 C 77 % 1027,4 hPa 0,0 l/m 0,0 km/h (0 Bft) W 270 -2,3 C 1,3 C 0,0 km/h (0 Bft)
18.02.2018 10:32 1,2 C 0,3 C 2,6 C 0,2 C 77 % 1027,4 hPa 0,0 l/m 0,0 km/h (0 Bft) W 270 -2,4 C 1,2 C 0,0 km/h (0 Bft)
18.02.2018 10:30 1,2 C 0,3 C 2,6 C 0,2 C 78 % 1027,4 hPa 0,0 l/m 0,0 km/h (0 Bft) W 270 -2,2 C 1,2 C 0,0 km/h (0 Bft)
18.02.2018 10:28 1,2 C 0,3 C 2,6 C 0,1 C 78 % 1027,1 hPa 0,0 l/m 0,0 km/h (0 Bft) W 270 -2,2 C 1,2 C 0,0 km/h (0 Bft)
18.02.2018 10:26 1,2 C 0,3 C 2,6 C 0,1 C 77 % 1027,1 hPa 0,0 l/m 0,0 km/h (0 Bft) W 270 -2,4 C 1,2 C 0,0 km/h (0 Bft)
18.02.2018 10:24 1,1 C 0,3 C 2,5 C 0,1 C 77 % 1027,1 hPa 0,0 l/m 0,0 km/h (0 Bft) W 270 -2,5 C 1,1 C 0,0 km/h (0 Bft)
18.02.2018 10:22 1,1 C 0,3 C 2,6 C 0,1 C 78 % 1027,1 hPa 0,0 l/m 0,0 km/h (0 Bft) W 270 -2,3 C 1,1 C 0,0 km/h (0 Bft)
18.02.2018 10:20 1,1 C 0,3 C 2,6 C 0,1 C 78 % 1027,1 hPa 0,0 l/m 0,0 km/h (0 Bft) W 270 -2,3 C 1,1 C 0,0 km/h (0 Bft)
18.02.2018 10:18 1,1 C 0,3 C 2,6 C 0,1 C 78 % 1027,1 hPa 0,0 l/m 0,0 km/h (0 Bft) W 270 -2,3 C 1,1 C 0,0 km/h (0 Bft)
18.02.2018 10:16 1,1 C 0,3 C 2,6 C 0,1 C 78 % 1027,1 hPa 0,0 l/m 0,0 km/h (0 Bft) W 270 -2,3 C 1,1 C 0,0 km/h (0 Bft)
18.02.2018 10:14 1,0 C 0,3 C 2,6 C 0,0 C 78 % 1027,1 hPa 0,0 l/m 0,0 km/h (0 Bft) W 270 -2,4 C 1,0 C 0,0 km/h (0 Bft)
18.02.2018 10:12 1,0 C 0,3 C 2,6 C 0,0 C 78 % 1027,1 hPa 0,0 l/m 0,0 km/h (0 Bft) W 270 -2,4 C 1,0 C 0,0 km/h (0 Bft)
18.02.2018 10:11 0,9 C 0,3 C 2,6 C 0,0 C 78 % 1027,1 hPa 0,0 l/m 0,0 km/h (0 Bft) W 270 -2,5 C 0,9 C 0,0 km/h (0 Bft)
18.02.2018 10:08 0,9 C 0,3 C 2,6 C -0,1 C 78 % 1027,5 hPa 0,0 l/m 0,0 km/h (0 Bft) W 270 -2,5 C 0,9 C 0,0 km/h (0 Bft)
18.02.2018 10:06 0,8 C 0,3 C 2,6 C -0,1 C 78 % 1027,5 hPa 0,0 l/m 0,0 km/h (0 Bft) W 270 -2,6 C 0,8 C 0,0 km/h (0 Bft)
18.02.2018 10:04 0,8 C 0,3 C 2,6 C -0,1 C 78 % 1027,5 hPa 0,0 l/m 0,0 km/h (0 Bft) W 270 -2,6 C 0,8 C 0,0 km/h (0 Bft)
18.02.2018 10:02 0,7 C 0,2 C 2,6 C -0,1 C 78 % 1027,5 hPa 0,0 l/m 0,0 km/h (0 Bft) W 270 -2,7 C 0,7 C 0,0 km/h (0 Bft)
18.02.2018 10:00 0,7 C 0,1 C 2,6 C -0,1 C 78 % 1027,5 hPa 0,0 l/m 0,0 km/h (0 Bft) W 270 -2,7 C 0,7 C 0,0 km/h (0 Bft)
18.02.2018 09:58 0,7 C 0,1 C 2,6 C -0,1 C 78 % 1027,5 hPa 0,0 l/m 0,0 km/h (0 Bft) W 270 -2,7 C 0,7 C 0,0 km/h (0 Bft)
18.02.2018 09:56 0,6 C 0,1 C 2,6 C -0,1 C 78 % 1027,5 hPa 0,0 l/m 0,0 km/h (0 Bft) W 270 -2,8 C 0,6 C 0,0 km/h (0 Bft)
18.02.2018 09:54 0,6 C 0,1 C 2,6 C -0,1 C 78 % 1027,5 hPa 0,0 l/m 0,0 km/h (0 Bft) W 270 -2,8 C 0,6 C 0,0 km/h (0 Bft)
18.02.2018 09:52 0,6 C 0,1 C 2,6 C -0,1 C 78 % 1027,5 hPa 0,0 l/m 0,0 km/h (0 Bft) W 270 -2,8 C 0,6 C 0,0 km/h (0 Bft)
18.02.2018 09:50 0,6 C 0,0 C 2,6 C -0,1 C 78 % 1027,5 hPa 0,0 l/m 0,0 km/h (0 Bft) W 270 -2,8 C 0,6 C 0,0 km/h (0 Bft)
18.02.2018 09:48 0,6 C 0,0 C 2,6 C -0,1 C 78 % 1027,4 hPa 0,0 l/m 0,0 km/h (0 Bft) W 270 -2,8 C 0,6 C 0,0 km/h (0 Bft)
18.02.2018 09:46 0,6 C 0,0 C 2,6 C -0,1 C 78 % 1027,4 hPa 0,0 l/m 0,0 km/h (0 Bft) W 270 -2,8 C 0,6 C 0,0 km/h (0 Bft)
18.02.2018 09:44 0,7 C 0,1 C 2,6 C -0,1 C 78 % 1027,4 hPa 0,0 l/m 0,0 km/h (0 Bft) W 270 -2,7 C 0,7 C 0,0 km/h (0 Bft)
18.02.2018 09:42 0,7 C 0,1 C 2,6 C -0,2 C 78 % 1027,4 hPa 0,0 l/m 0,0 km/h (0 Bft) W 270 -2,7 C 0,7 C 0,0 km/h (0 Bft)
18.02.2018 09:40 0,7 C 0,1 C 2,6 C -0,1 C 78 % 1027,4 hPa 0,0 l/m 0,0 km/h (0 Bft) W 270 -2,7 C 0,7 C 0,0 km/h (0 Bft)
18.02.2018 09:38 0,7 C 0,1 C 2,6 C -0,1 C 78 % 1027,4 hPa 0,0 l/m 0,0 km/h (0 Bft) W 270 -2,7 C 0,7 C 0,0 km/h (0 Bft)
18.02.2018 09:36 0,6 C 0,1 C 2,6 C -0,2 C 78 % 1027,4 hPa 0,0 l/m 0,0 km/h (0 Bft) W 270 -2,8 C 0,6 C 0,0 km/h (0 Bft)
18.02.2018 09:34 0,6 C 0,1 C 2,6 C -0,2 C 78 % 1027,4 hPa 0,0 l/m 0,0 km/h (0 Bft) W 270 -2,8 C 0,6 C 0,0 km/h (0 Bft)
18.02.2018 09:32 0,6 C 0,1 C 2,6 C -0,2 C 78 % 1027,4 hPa 0,0 l/m 0,0 km/h (0 Bft) W 270 -2,8 C 0,6 C 0,0 km/h (0 Bft)
18.02.2018 09:30 0,6 C 0,0 C 2,6 C -0,3 C 78 % 1027,4 hPa 0,0 l/m 0,0 km/h (0 Bft) W 270 -2,8 C 0,6 C 0,0 km/h (0 Bft)
18.02.2018 09:28 0,6 C 0,0 C 2,6 C -0,3 C 78 % 1027,5 hPa 0,0 l/m 0,0 km/h (0 Bft) W 270 -2,8 C 0,6 C 0,0 km/h (0 Bft)
18.02.2018 09:26 0,6 C 0,0 C 2,6 C -0,3 C 78 % 1027,5 hPa 0,0 l/m 0,0 km/h (0 Bft) W 270 -2,8 C 0,6 C 0,0 km/h (0 Bft)
18.02.2018 09:24 0,5 C 0,0 C 2,6 C -0,3 C 78 % 1027,5 hPa 0,0 l/m 0,0 km/h (0 Bft) W 270 -2,9 C 0,5 C 0,0 km/h (0 Bft)
18.02.2018 09:22 0,5 C 0,0 C 2,6 C -0,3 C 78 % 1027,5 hPa 0,0 l/m 0,0 km/h (0 Bft) W 270 -2,9 C 0,5 C 0,0 km/h (0 Bft)
18.02.2018 09:20 0,5 C 0,0 C 2,6 C -0,3 C 78 % 1027,5 hPa 0,0 l/m 0,0 km/h (0 Bft) W 270 -2,9 C 0,5 C 0,0 km/h (0 Bft)
18.02.2018 09:18 0,5 C 0,0 C 2,6 C -0,3 C 78 % 1027,5 hPa 0,0 l/m 0,0 km/h (0 Bft) W 270 -2,9 C 0,5 C 0,0 km/h (0 Bft)
18.02.2018 09:16 0,5 C 0,0 C 2,6 C -0,3 C 78 % 1027,5 hPa 0,0 l/m 0,0 km/h (0 Bft) W 270 -2,9 C 0,5 C 0,0 km/h (0 Bft)
18.02.2018 09:14 0,5 C 0,0 C 2,6 C -0,3 C 78 % 1027,5 hPa 0,0 l/m 0,0 km/h (0 Bft) W 270 -2,9 C 0,5 C 0,0 km/h (0 Bft)
18.02.2018 09:12 0,5 C 0,0 C 2,6 C -0,3 C 79 % 1027,5 hPa 0,0 l/m 0,0 km/h (0 Bft) W 270 -2,7 C 0,5 C 0,0 km/h (0 Bft)
18.02.2018 09:10 0,5 C 0,1 C 2,6 C -0,3 C 79 % 1027,5 hPa 0,0 l/m 0,0 km/h (0 Bft) W 270 -2,7 C 0,5 C 0,0 km/h (0 Bft)
18.02.2018 09:08 0,5 C 0,1 C 2,6 C -0,4 C 79 % 1027,4 hPa 0,0 l/m 0,0 km/h (0 Bft) W 270 -2,7 C 0,5 C 0,0 km/h (0 Bft)
18.02.2018 09:06 0,5 C 0,0 C 2,6 C -0,4 C 79 % 1027,4 hPa 0,0 l/m 0,0 km/h (0 Bft) W 270 -2,7 C 0,5 C 0,0 km/h (0 Bft)
18.02.2018 09:04 0,5 C 0,0 C 2,6 C -0,4 C 79 % 1027,4 hPa 0,0 l/m 0,0 km/h (0 Bft) W 270 -2,7 C 0,5 C 0,0 km/h (0 Bft)
18.02.2018 09:02 0,5 C 0,0 C 2,6 C -0,4 C 79 % 1027,4 hPa 0,0 l/m 0,0 km/h (0 Bft) W 270 -2,7 C 0,5 C 0,0 km/h (0 Bft)
18.02.2018 09:00 0,4 C 0,0 C 2,6 C -0,4 C 79 % 1027,4 hPa 0,0 l/m 0,0 km/h (0 Bft) W 270 -2,8 C 0,4 C 0,0 km/h (0 Bft)
18.02.2018 08:58 0,4 C -0,1 C 2,6 C -0,4 C 79 % 1027,4 hPa 0,0 l/m 0,0 km/h (0 Bft) W 270 -2,8 C 0,4 C 0,0 km/h (0 Bft)
18.02.2018 08:56 0,4 C -0,2 C 2,6 C -0,5 C 79 % 1027,4 hPa 0,0 l/m 0,0 km/h (0 Bft) W 270 -2,8 C 0,4 C 0,0 km/h (0 Bft)
18.02.2018 08:54 0,4 C -0,3 C 2,6 C -0,5 C 79 % 1027,4 hPa 0,0 l/m 0,0 km/h (0 Bft) W 270 -2,8 C 0,4 C 0,0 km/h (0 Bft)
18.02.2018 08:52 0,4 C -0,3 C 2,6 C -0,5 C 79 % 1027,4 hPa 0,0 l/m 0,0 km/h (0 Bft) W 270 -2,8 C 0,4 C 0,0 km/h (0 Bft)
18.02.2018 08:50 0,4 C -0,3 C 2,6 C -0,5 C 79 % 1027,4 hPa 0,0 l/m 0,0 km/h (0 Bft) W 270 -2,8 C 0,4 C 0,0 km/h (0 Bft)
18.02.2018 08:48 0,4 C -0,3 C 2,6 C -0,5 C 79 % 1027,4 hPa 0,0 l/m 0,0 km/h (0 Bft) W 270 -2,8 C 0,4 C 0,0 km/h (0 Bft)
18.02.2018 08:46 0,4 C -0,3 C 2,6 C -0,5 C 79 % 1027,4 hPa 0,0 l/m 0,0 km/h (0 Bft) W 270 -2,8 C 0,4 C 0,0 km/h (0 Bft)
18.02.2018 08:44 0,3 C -0,3 C 2,6 C -0,4 C 79 % 1027,4 hPa 0,0 l/m 0,0 km/h (0 Bft) W 270 -2,9 C 0,3 C 0,0 km/h (0 Bft)
18.02.2018 08:42 0,4 C -0,3 C 2,6 C -0,4 C 79 % 1027,4 hPa 0,0 l/m 0,0 km/h (0 Bft) W 270 -2,8 C 0,4 C 0,0 km/h (0 Bft)
18.02.2018 08:40 0,4 C -0,3 C 2,6 C -0,4 C 79 % 1027,4 hPa 0,0 l/m 0,0 km/h (0 Bft) W 270 -2,8 C 0,4 C 0,0 km/h (0 Bft)
18.02.2018 08:38 0,4 C -0,3 C 2,6 C -0,4 C 79 % 1027,4 hPa 0,0 l/m 0,0 km/h (0 Bft) W 270 -2,8 C 0,4 C 0,0 km/h (0 Bft)
18.02.2018 08:36 0,4 C -0,3 C 2,6 C -0,5 C 79 % 1027,4 hPa 0,0 l/m 0,0 km/h (0 Bft) W 270 -2,8 C 0,4 C 0,0 km/h (0 Bft)
18.02.2018 08:34 0,4 C -0,3 C 2,6 C -0,5 C 79 % 1027,4 hPa 0,0 l/m 0,0 km/h (0 Bft) W 270 -2,8 C 0,4 C 0,0 km/h (0 Bft)
18.02.2018 08:32 0,4 C -0,3 C 2,6 C -0,5 C 79 % 1027,4 hPa 0,0 l/m 0,0 km/h (0 Bft) W 270 -2,8 C 0,4 C 0,0 km/h (0 Bft)
18.02.2018 08:30 0,4 C -0,4 C 2,6 C -0,5 C 79 % 1027,4 hPa 0,0 l/m 0,0 km/h (0 Bft) W 270 -2,8 C 0,4 C 0,0 km/h (0 Bft)
18.02.2018 08:28 0,4 C -0,4 C 2,6 C -0,5 C 79 % 1027,0 hPa 0,0 l/m 0,0 km/h (0 Bft) W 270 -2,8 C 0,4 C 0,0 km/h (0 Bft)
18.02.2018 08:26 0,4 C -0,4 C 2,6 C -0,5 C 79 % 1027,0 hPa 0,0 l/m 0,0 km/h (0 Bft) W 270 -2,8 C 0,4 C 0,0 km/h (0 Bft)
18.02.2018 08:24 0,4 C -0,4 C 2,6 C -0,5 C 79 % 1027,0 hPa 0,0 l/m 0,0 km/h (0 Bft) W 270 -2,8 C 0,4 C 0,0 km/h (0 Bft)
18.02.2018 08:22 0,5 C -0,3 C 2,6 C -0,5 C 79 % 1027,0 hPa 0,0 l/m 0,0 km/h (0 Bft) W 270 -2,7 C 0,5 C 0,0 km/h (0 Bft)
18.02.2018 08:20 0,5 C -0,3 C 2,6 C -0,5 C 79 % 1027,0 hPa 0,0 l/m 0,0 km/h (0 Bft) W 270 -2,7 C 0,5 C 0,0 km/h (0 Bft)
18.02.2018 08:18 0,5 C -0,3 C 2,6 C -0,5 C 79 % 1027,0 hPa 0,0 l/m 0,0 km/h (0 Bft) W 270 -2,7 C 0,5 C 0,0 km/h (0 Bft)
18.02.2018 08:16 0,5 C -0,3 C 2,6 C -0,5 C 79 % 1027,0 hPa 0,0 l/m 0,0 km/h (0 Bft) W 270 -2,7 C 0,5 C 0,0 km/h (0 Bft)
18.02.2018 08:14 0,5 C -0,3 C 2,6 C -0,5 C 79 % 1027,0 hPa 0,0 l/m 0,0 km/h (0 Bft) W 270 -2,7 C 0,5 C 0,0 km/h (0 Bft)
18.02.2018 08:12 0,5 C -0,3 C 2,6 C -0,5 C 79 % 1027,0 hPa 0,0 l/m 0,0 km/h (0 Bft) W 270 -2,7 C 0,5 C 0,0 km/h (0 Bft)
18.02.2018 08:10 0,4 C -0,3 C 2,6 C -0,5 C 79 % 1027,0 hPa 0,0 l/m 0,0 km/h (0 Bft) W 270 -2,8 C 0,4 C 0,0 km/h (0 Bft)
18.02.2018 08:08 0,4 C -0,3 C 2,6 C -0,5 C 79 % 1026,6 hPa 0,0 l/m 0,0 km/h (0 Bft) W 270 -2,8 C 0,4 C 0,0 km/h (0 Bft)
18.02.2018 08:06 0,4 C -0,3 C 2,6 C -0,5 C 79 % 1026,6 hPa 0,0 l/m 0,0 km/h (0 Bft) W 270 -2,8 C 0,4 C 0,0 km/h (0 Bft)
18.02.2018 08:04 0,4 C -0,3 C 2,6 C -0,5 C 79 % 1026,6 hPa 0,0 l/m 0,0 km/h (0 Bft) W 270 -2,8 C 0,4 C 0,0 km/h (0 Bft)
18.02.2018 08:02 0,3 C -0,3 C 2,6 C -0,5 C 79 % 1026,6 hPa 0,0 l/m 0,0 km/h (0 Bft) W 270 -2,9 C 0,3 C 0,0 km/h (0 Bft)
18.02.2018 08:00 0,3 C -0,1 C 2,6 C -0,5 C 79 % 1026,6 hPa 0,0 l/m 0,0 km/h (0 Bft) W 270 -2,9 C 0,3 C 0,0 km/h (0 Bft)
18.02.2018 07:58 0,4 C -0,1 C 2,6 C -0,5 C 79 % 1026,6 hPa 0,0 l/m 0,0 km/h (0 Bft) W 270 -2,8 C 0,4 C 0,0 km/h (0 Bft)
18.02.2018 07:56 0,3 C -0,3 C 2,6 C -0,5 C 79 % 1026,6 hPa 0,0 l/m 0,0 km/h (0 Bft) W 270 -2,9 C 0,3 C 0,0 km/h (0 Bft)
18.02.2018 07:54 0,3 C -0,3 C 2,6 C -0,5 C 79 % 1026,6 hPa 0,0 l/m 0,0 km/h (0 Bft) W 270 -2,9 C 0,3 C 0,0 km/h (0 Bft)
18.02.2018 07:52 0,3 C -0,3 C 2,6 C -0,5 C 79 % 1026,6 hPa 0,0 l/m 0,0 km/h (0 Bft) W 270 -2,9 C 0,3 C 0,0 km/h (0 Bft)
18.02.2018 07:50 0,3 C -0,3 C 2,6 C -0,5 C 79 % 1026,6 hPa 0,0 l/m 0,0 km/h (0 Bft) W 270 -2,9 C 0,3 C 0,0 km/h (0 Bft)
18.02.2018 07:48 0,3 C -0,3 C 2,6 C -0,5 C 79 % 1026,4 hPa 0,0 l/m 0,0 km/h (0 Bft) W 270 -2,9 C 0,3 C 0,0 km/h (0 Bft)
18.02.2018 07:46 0,3 C -0,3 C 2,6 C -0,5 C 79 % 1026,4 hPa 0,0 l/m 0,0 km/h (0 Bft) W 270 -2,9 C 0,3 C 0,0 km/h (0 Bft)
18.02.2018 07:44 0,3 C -0,3 C 2,6 C -0,5 C 79 % 1026,4 hPa 0,0 l/m 0,0 km/h (0 Bft) W 270 -2,9 C 0,3 C 0,0 km/h (0 Bft)
18.02.2018 07:42 0,3 C -0,4 C 2,6 C -0,5 C 79 % 1026,4 hPa 0,0 l/m 0,0 km/h (0 Bft) W 270 -2,9 C 0,3 C 0,0 km/h (0 Bft)
18.02.2018 07:40 0,3 C -0,4 C 2,6 C -0,5 C 79 % 1026,4 hPa 0,0 l/m 0,0 km/h (0 Bft) W 270 -2,9 C 0,3 C 0,0 km/h (0 Bft)
18.02.2018 07:38 0,3 C -0,4 C 2,6 C -0,5 C 79 % 1026,4 hPa 0,0 l/m 0,0 km/h (0 Bft) W 270 -2,9 C 0,3 C 0,0 km/h (0 Bft)
18.02.2018 07:36 0,3 C -0,4 C 2,6 C -0,5 C 79 % 1026,4 hPa 0,0 l/m 0,0 km/h (0 Bft) W 270 -2,9 C 0,3 C 0,0 km/h (0 Bft)
18.02.2018 07:34 0,4 C -0,4 C 2,6 C -0,5 C 79 % 1026,4 hPa 0,0 l/m 0,0 km/h (0 Bft) W 270 -2,8 C 0,4 C 0,0 km/h (0 Bft)
18.02.2018 07:32 0,4 C -0,4 C 2,6 C -0,5 C 79 % 1026,4 hPa 0,0 l/m 0,0 km/h (0 Bft) W 270 -2,8 C 0,4 C 0,0 km/h (0 Bft)
18.02.2018 07:30 0,4 C -0,4 C 2,6 C -0,5 C 79 % 1026,4 hPa 0,0 l/m 0,0 km/h (0 Bft) W 270 -2,8 C 0,4 C 0,0 km/h (0 Bft)
18.02.2018 07:28 0,4 C -0,4 C 2,6 C -0,5 C 79 % 1026,2 hPa 0,0 l/m 0,0 km/h (0 Bft) W 270 -2,8 C 0,4 C 0,0 km/h (0 Bft)
18.02.2018 07:26 0,4 C -0,4 C 2,6 C -0,5 C 79 % 1026,2 hPa 0,0 l/m 0,0 km/h (0 Bft) W 270 -2,8 C 0,4 C 0,0 km/h (0 Bft)
18.02.2018 07:24 0,4 C -0,4 C 2,6 C -0,5 C 78 % 1026,2 hPa 0,0 l/m 0,0 km/h (0 Bft) W 270 -3,0 C 0,4 C 0,0 km/h (0 Bft)
18.02.2018 07:22 0,4 C -0,4 C 2,6 C -0,6 C 78 % 1026,2 hPa 0,0 l/m 0,0 km/h (0 Bft) W 270 -3,0 C 0,4 C 0,0 km/h (0 Bft)
18.02.2018 07:20 0,4 C -0,4 C 2,6 C -0,5 C 78 % 1026,2 hPa 0,0 l/m 0,0 km/h (0 Bft) W 270 -3,0 C 0,4 C 0,0 km/h (0 Bft)
18.02.2018 07:18 0,4 C -0,4 C 2,6 C -0,5 C 78 % 1026,2 hPa 0,0 l/m 0,0 km/h (0 Bft) W 270 -3,0 C 0,4 C 0,0 km/h (0 Bft)
18.02.2018 07:16 0,4 C -0,5 C 2,6 C -0,5 C 78 % 1026,2 hPa 0,0 l/m 0,0 km/h (0 Bft) W 270 -3,0 C 0,4 C 0,0 km/h (0 Bft)
18.02.2018 07:14 0,4 C -0,5 C 2,6 C -0,6 C 78 % 1026,2 hPa 0,0 l/m 0,0 km/h (0 Bft) W 270 -3,0 C 0,4 C 0,0 km/h (0 Bft)
18.02.2018 07:12 0,5 C -0,5 C 2,6 C -0,6 C 78 % 1026,2 hPa 0,0 l/m 0,0 km/h (0 Bft) W 270 -2,9 C 0,5 C 0,0 km/h (0 Bft)
18.02.2018 07:10 0,6 C -0,5 C 2,6 C -0,5 C 78 % 1026,2 hPa 0,0 l/m 0,0 km/h (0 Bft) W 270 -2,8 C 0,6 C 0,0 km/h (0 Bft)
18.02.2018 07:08 0,6 C -0,5 C 2,6 C -0,5 C 78 % 1026,1 hPa 0,0 l/m 0,0 km/h (0 Bft) W 270 -2,8 C 0,6 C 0,0 km/h (0 Bft)
18.02.2018 07:06 0,6 C -0,5 C 2,6 C -0,5 C 78 % 1026,1 hPa 0,0 l/m 0,0 km/h (0 Bft) W 270 -2,8 C 0,6 C 0,0 km/h (0 Bft)
18.02.2018 07:04 0,8 C -0,5 C 2,6 C -0,5 C 79 % 1026,1 hPa 0,0 l/m 0,0 km/h (0 Bft) W 270 -2,4 C 0,8 C 0,0 km/h (0 Bft)
18.02.2018 07:02 0,8 C -0,5 C 2,6 C -0,5 C 79 % 1026,1 hPa 0,0 l/m 0,0 km/h (0 Bft) W 270 -2,4 C 0,8 C 0,0 km/h (0 Bft)
18.02.2018 07:00 0,8 C -0,5 C 2,6 C -0,5 C 79 % 1026,1 hPa 0,0 l/m 0,0 km/h (0 Bft) W 270 -2,4 C 0,8 C 0,0 km/h (0 Bft)
18.02.2018 06:58 0,8 C -0,5 C 2,6 C -0,5 C 79 % 1026,1 hPa 0,0 l/m 0,0 km/h (0 Bft) W 270 -2,4 C 0,8 C 0,0 km/h (0 Bft)
18.02.2018 06:56 0,8 C -0,5 C 2,6 C -0,5 C 79 % 1026,1 hPa 0,0 l/m 0,0 km/h (0 Bft) W 270 -2,4 C 0,8 C 0,0 km/h (0 Bft)
18.02.2018 06:54 0,8 C -0,5 C 2,6 C -0,5 C 79 % 1026,1 hPa 0,0 l/m 0,0 km/h (0 Bft) W 270 -2,4 C 0,8 C 0,0 km/h (0 Bft)
18.02.2018 06:52 0,8 C -0,5 C 2,6 C -0,5 C 79 % 1026,1 hPa 0,0 l/m 0,0 km/h (0 Bft) W 270 -2,4 C 0,8 C 0,0 km/h (0 Bft)
18.02.2018 06:50 1,0 C -0,4 C 2,6 C -0,5 C 79 % 1026,1 hPa 0,0 l/m 0,0 km/h (0 Bft) W 270 -2,2 C 1,0 C 0,0 km/h (0 Bft)
18.02.2018 06:48 1,0 C -0,4 C 2,6 C -0,5 C 79 % 1026,0 hPa 0,0 l/m 0,0 km/h (0 Bft) W 270 -2,2 C 1,0 C 0,0 km/h (0 Bft)
18.02.2018 06:46 1,1 C -0,4 C 2,6 C -0,5 C 79 % 1026,0 hPa 0,0 l/m 0,0 km/h (0 Bft) W 270 -2,1 C 1,1 C 0,0 km/h (0 Bft)
18.02.2018 06:44 1,2 C -0,4 C 2,6 C -0,5 C 79 % 1026,0 hPa 0,0 l/m 0,0 km/h (0 Bft) W 270 -2,0 C 1,2 C 0,0 km/h (0 Bft)
18.02.2018 06:42 1,3 C -0,4 C 2,6 C -0,5 C 80 % 1026,0 hPa 0,0 l/m 0,0 km/h (0 Bft) W 270 -1,8 C 1,3 C 0,0 km/h (0 Bft)
18.02.2018 06:40 1,4 C -0,4 C 2,6 C -0,5 C 80 % 1026,0 hPa 0,0 l/m 0,0 km/h (0 Bft) W 270 -1,7 C 1,4 C 0,0 km/h (0 Bft)
18.02.2018 06:38 1,6 C -0,4 C 2,6 C -0,5 C 81 % 1026,0 hPa 0,0 l/m 0,0 km/h (0 Bft) W 270 -1,3 C 1,6 C 0,0 km/h (0 Bft)
18.02.2018 06:36 1,7 C -0,5 C 2,6 C -0,5 C 83 % 1026,0 hPa 0,0 l/m 0,0 km/h (0 Bft) W 270 -0,9 C 1,7 C 0,0 km/h (0 Bft)
18.02.2018 06:34 1,9 C -0,5 C 2,6 C -0,5 C 84 % 1026,0 hPa 0,0 l/m 0,0 km/h (0 Bft) W 270 -0,5 C 1,9 C 0,0 km/h (0 Bft)
18.02.2018 06:32 1,8 C -0,5 C 2,6 C -0,5 C 84 % 1026,0 hPa 0,0 l/m 0,0 km/h (0 Bft) W 270 -0,6 C 1,8 C 0,0 km/h (0 Bft)
18.02.2018 06:30 1,2 C -0,5 C 2,6 C -0,5 C 83 % 1026,0 hPa 0,0 l/m 0,0 km/h (0 Bft) W 270 -1,4 C 1,2 C 0,0 km/h (0 Bft)
18.02.2018 06:28 1,2 C -0,5 C 2,6 C -0,5 C 83 % 1025,4 hPa 0,0 l/m 0,0 km/h (0 Bft) W 270 -1,4 C 1,2 C 0,0 km/h (0 Bft)
18.02.2018 06:26 0,8 C -0,5 C 2,6 C -0,5 C 82 % 1025,4 hPa 0,0 l/m 0,0 km/h (0 Bft) W 270 -1,9 C 0,8 C 0,0 km/h (0 Bft)
18.02.2018 06:24 0,3 C -0,5 C 2,6 C -0,5 C 81 % 1025,4 hPa 0,0 l/m 0,0 km/h (0 Bft) W 270 -2,6 C 0,3 C 0,0 km/h (0 Bft)
18.02.2018 06:22 0,0 C -0,5 C 2,6 C -0,5 C 80 % 1025,4 hPa 0,0 l/m 0,0 km/h (0 Bft) W 270 -3,0 C 0,0 C 0,0 km/h (0 Bft)
18.02.2018 06:20 0,0 C -0,5 C 2,6 C -0,5 C 80 % 1025,4 hPa 0,0 l/m 0,0 km/h (0 Bft) W 270 -3,0 C 0,0 C 0,0 km/h (0 Bft)
18.02.2018 06:18 0,1 C -0,5 C 2,6 C -0,5 C 80 % 1025,4 hPa 0,0 l/m 0,0 km/h (0 Bft) W 270 -2,9 C 0,1 C 0,0 km/h (0 Bft)
18.02.2018 06:16 0,1 C -0,4 C 2,6 C -0,5 C 80 % 1025,4 hPa 0,0 l/m 0,0 km/h (0 Bft) W 270 -2,9 C 0,1 C 0,0 km/h (0 Bft)
18.02.2018 06:14 0,0 C -0,5 C 2,6 C -0,5 C 80 % 1025,4 hPa 0,0 l/m 0,0 km/h (0 Bft) W 270 -3,0 C 0,0 C 0,0 km/h (0 Bft)
18.02.2018 06:12 0,0 C -0,5 C 2,6 C -0,5 C 80 % 1025,4 hPa 0,0 l/m 0,0 km/h (0 Bft) W 270 -3,0 C 0,0 C 0,0 km/h (0 Bft)
18.02.2018 06:10 0,1 C -0,5 C 2,6 C -0,4 C 80 % 1025,4 hPa 0,0 l/m 0,0 km/h (0 Bft) W 270 -2,9 C 0,1 C 0,0 km/h (0 Bft)
18.02.2018 06:08 0,1 C -0,5 C 2,6 C -0,4 C 80 % 1025,1 hPa 0,0 l/m 0,0 km/h (0 Bft) W 270 -2,9 C 0,1 C 0,0 km/h (0 Bft)
18.02.2018 06:06 0,1 C -0,5 C 2,6 C -0,4 C 80 % 1025,1 hPa 0,0 l/m 0,0 km/h (0 Bft) W 270 -2,9 C 0,1 C 0,0 km/h (0 Bft)
18.02.2018 06:04 0,1 C -0,5 C 2,6 C -0,4 C 80 % 1025,1 hPa 0,0 l/m 0,0 km/h (0 Bft) W 270 -2,9 C 0,1 C 0,0 km/h (0 Bft)
18.02.2018 06:02 0,1 C -0,5 C 2,6 C -0,4 C 80 % 1025,1 hPa 0,0 l/m 0,0 km/h (0 Bft) W 270 -2,9 C 0,1 C 0,0 km/h (0 Bft)
18.02.2018 06:00 0,1 C -0,4 C 2,6 C -0,4 C 80 % 1025,1 hPa 0,0 l/m 0,0 km/h (0 Bft) W 270 -2,9 C 0,1 C 0,0 km/h (0 Bft)
18.02.2018 05:58 0,1 C -0,4 C 2,6 C -0,4 C 80 % 1025,1 hPa 0,0 l/m 0,0 km/h (0 Bft) W 270 -2,9 C 0,1 C 0,0 km/h (0 Bft)
18.02.2018 05:56 0,2 C -0,4 C 2,6 C -0,4 C 80 % 1025,1 hPa 0,0 l/m 0,0 km/h (0 Bft) W 270 -2,8 C 0,2 C 0,0 km/h (0 Bft)
18.02.2018 05:54 0,2 C -0,4 C 2,6 C -0,4 C 80 % 1025,1 hPa 0,0 l/m 0,0 km/h (0 Bft) W 270 -2,8 C 0,2 C 0,0 km/h (0 Bft)
18.02.2018 05:52 0,2 C -0,4 C 2,6 C -0,4 C 80 % 1025,1 hPa 0,0 l/m 0,0 km/h (0 Bft) W 270 -2,8 C 0,2 C 0,0 km/h (0 Bft)
18.02.2018 05:50 0,2 C -0,4 C 2,6 C -0,4 C 80 % 1025,1 hPa 0,0 l/m 0,0 km/h (0 Bft) W 270 -2,8 C 0,2 C 0,0 km/h (0 Bft)
18.02.2018 05:48 0,2 C -0,4 C 2,6 C -0,4 C 80 % 1025,1 hPa 0,0 l/m 0,0 km/h (0 Bft) W 270 -2,8 C 0,2 C 0,0 km/h (0 Bft)
18.02.2018 05:46 0,2 C -0,4 C 2,6 C -0,3 C 80 % 1025,1 hPa 0,0 l/m 0,0 km/h (0 Bft) W 270 -2,8 C 0,2 C 0,0 km/h (0 Bft)
18.02.2018 05:44 0,2 C -0,4 C 2,6 C -0,3 C 80 % 1025,1 hPa 0,0 l/m 0,0 km/h (0 Bft) W 270 -2,8 C 0,2 C 0,0 km/h (0 Bft)
18.02.2018 05:42 0,2 C -0,4 C 2,6 C -0,4 C 80 % 1025,1 hPa 0,0 l/m 0,0 km/h (0 Bft) W 270 -2,8 C 0,2 C 0,0 km/h (0 Bft)
18.02.2018 05:40 0,2 C -0,4 C 2,6 C -0,4 C 80 % 1025,1 hPa 0,0 l/m 0,0 km/h (0 Bft) W 270 -2,8 C 0,2 C 0,0 km/h (0 Bft)
18.02.2018 05:38 0,2 C -0,3 C 2,6 C -0,4 C 80 % 1025,1 hPa 0,0 l/m 0,0 km/h (0 Bft) W 270 -2,8 C 0,2 C 0,0 km/h (0 Bft)
18.02.2018 05:36 0,2 C -0,3 C 2,6 C -0,3 C 80 % 1025,1 hPa 0,0 l/m 0,0 km/h (0 Bft) W 270 -2,8 C 0,2 C 0,0 km/h (0 Bft)
18.02.2018 05:34 0,2 C -0,3 C 2,6 C -0,3 C 80 % 1025,1 hPa 0,0 l/m 0,0 km/h (0 Bft) W 270 -2,8 C 0,2 C 0,0 km/h (0 Bft)
18.02.2018 05:32 0,2 C -0,3 C 2,6 C -0,3 C 80 % 1025,1 hPa 0,0 l/m 0,0 km/h (0 Bft) W 270 -2,8 C 0,2 C 0,0 km/h (0 Bft)
18.02.2018 05:30 0,2 C -0,3 C 2,6 C -0,3 C 80 % 1025,1 hPa 0,0 l/m 0,0 km/h (0 Bft) W 270 -2,8 C 0,2 C 0,0 km/h (0 Bft)
18.02.2018 05:28 0,2 C -0,3 C 2,6 C -0,3 C 80 % 1024,7 hPa 0,0 l/m 0,0 km/h (0 Bft) W 270 -2,8 C 0,2 C 0,0 km/h (0 Bft)
18.02.2018 05:26 0,2 C -0,3 C 2,6 C -0,3 C 80 % 1024,7 hPa 0,0 l/m 0,0 km/h (0 Bft) W 270 -2,8 C 0,2 C 0,0 km/h (0 Bft)
18.02.2018 05:24 0,3 C -0,3 C 2,6 C -0,3 C 81 % 1024,7 hPa 0,0 l/m 0,0 km/h (0 Bft) W 270 -2,6 C 0,3 C 0,0 km/h (0 Bft)
18.02.2018 05:22 0,2 C -0,3 C 2,6 C -0,3 C 81 % 1024,7 hPa 0,0 l/m 0,0 km/h (0 Bft) W 270 -2,7 C 0,2 C 0,0 km/h (0 Bft)
18.02.2018 05:20 0,2 C -0,3 C 2,6 C -0,3 C 81 % 1024,7 hPa 0,0 l/m 0,0 km/h (0 Bft) W 270 -2,7 C 0,2 C 0,0 km/h (0 Bft)
18.02.2018 05:18 0,2 C -0,3 C 2,6 C -0,3 C 81 % 1024,7 hPa 0,0 l/m 0,0 km/h (0 Bft) W 270 -2,7 C 0,2 C 0,0 km/h (0 Bft)
18.02.2018 05:16 0,2 C -0,3 C 2,6 C -0,3 C 80 % 1024,7 hPa 0,0 l/m 0,0 km/h (0 Bft) W 270 -2,8 C 0,2 C 0,0 km/h (0 Bft)
18.02.2018 05:14 0,2 C -0,3 C 2,6 C -0,3 C 80 % 1024,7 hPa 0,0 l/m 0,0 km/h (0 Bft) W 270 -2,8 C 0,2 C 0,0 km/h (0 Bft)
18.02.2018 05:12 0,2 C -0,3 C 2,7 C -0,3 C 80 % 1024,7 hPa 0,0 l/m 0,0 km/h (0 Bft) W 270 -2,8 C 0,2 C 0,0 km/h (0 Bft)
18.02.2018 05:10 0,2 C -0,3 C 2,7 C -0,3 C 80 % 1024,7 hPa 0,0 l/m 0,0 km/h (0 Bft) W 270 -2,8 C 0,2 C 0,0 km/h (0 Bft)
18.02.2018 05:08 0,2 C -0,3 C 2,7 C -0,3 C 80 % 1024,6 hPa 0,0 l/m 0,0 km/h (0 Bft) W 270 -2,8 C 0,2 C 0,0 km/h (0 Bft)
18.02.2018 05:06 0,2 C -0,3 C 2,6 C -0,3 C 80 % 1024,6 hPa 0,0 l/m 0,0 km/h (0 Bft) W 270 -2,8 C 0,2 C 0,0 km/h (0 Bft)
18.02.2018 05:04 0,2 C -0,3 C 2,6 C -0,3 C 80 % 1024,6 hPa 0,0 l/m 0,0 km/h (0 Bft) W 270 -2,8 C 0,2 C 0,0 km/h (0 Bft)
18.02.2018 05:01 0,2 C -0,3 C 2,6 C -0,3 C 80 % 1024,6 hPa 0,0 l/m 0,0 km/h (0 Bft) W 270 -2,8 C 0,2 C 0,0 km/h (0 Bft)
18.02.2018 05:00 0,3 C -0,3 C 2,7 C -0,3 C 80 % 1024,6 hPa 0,0 l/m 0,0 km/h (0 Bft) W 270 -2,7 C 0,3 C 0,0 km/h (0 Bft)
18.02.2018 04:59 0,3 C -0,3 C 2,6 C -0,3 C 80 % 1024,6 hPa 0,0 l/m 0,0 km/h (0 Bft) W 270 -2,7 C 0,3 C 0,0 km/h (0 Bft)
18.02.2018 04:56 0,2 C -0,3 C 2,7 C -0,3 C 80 % 1024,6 hPa 0,0 l/m 0,0 km/h (0 Bft) W 270 -2,8 C 0,2 C 0,0 km/h (0 Bft)
18.02.2018 04:54 0,2 C -0,3 C 2,7 C -0,3 C 80 % 1024,6 hPa 0,0 l/m 0,0 km/h (0 Bft) W 270 -2,8 C 0,2 C 0,0 km/h (0 Bft)
18.02.2018 04:52 0,3 C -0,3 C 2,7 C -0,3 C 80 % 1024,6 hPa 0,0 l/m 0,0 km/h (0 Bft) W 270 -2,7 C 0,3 C 0,0 km/h (0 Bft)
18.02.2018 04:50 0,2 C -0,3 C 2,7 C -0,3 C 80 % 1024,6 hPa 0,0 l/m 0,0 km/h (0 Bft) W 270 -2,8 C 0,2 C 0,0 km/h (0 Bft)
18.02.2018 04:48 0,2 C -0,3 C 2,7 C -0,3 C 80 % 1024,3 hPa 0,0 l/m 0,0 km/h (0 Bft) W 270 -2,8 C 0,2 C 0,0 km/h (0 Bft)
18.02.2018 04:46 0,2 C -0,3 C 2,7 C -0,3 C 80 % 1024,3 hPa 0,0 l/m 0,0 km/h (0 Bft) W 270 -2,8 C 0,2 C 0,0 km/h (0 Bft)
18.02.2018 04:44 0,3 C -0,3 C 2,7 C -0,3 C 80 % 1024,3 hPa 0,0 l/m 0,0 km/h (0 Bft) W 270 -2,7 C 0,3 C 0,0 km/h (0 Bft)
18.02.2018 04:42 0,3 C -0,3 C 2,7 C -0,3 C 80 % 1024,3 hPa 0,0 l/m 0,0 km/h (0 Bft) W 270 -2,7 C 0,3 C 0,0 km/h (0 Bft)
18.02.2018 04:40 0,3 C -0,3 C 2,7 C -0,3 C 80 % 1024,3 hPa 0,0 l/m 0,0 km/h (0 Bft) W 270 -2,7 C 0,3 C 0,0 km/h (0 Bft)
18.02.2018 04:39 0,2 C -0,3 C 2,7 C -0,3 C 80 % 1024,3 hPa 0,0 l/m 0,0 km/h (0 Bft) W 270 -2,8 C 0,2 C 0,0 km/h (0 Bft)
18.02.2018 04:36 0,2 C -0,3 C 2,7 C -0,3 C 80 % 1024,3 hPa 0,0 l/m 0,0 km/h (0 Bft) W 270 -2,8 C 0,2 C 0,0 km/h (0 Bft)
18.02.2018 04:34 0,3 C -0,1 C 2,7 C -0,3 C 80 % 1024,3 hPa 0,0 l/m 0,0 km/h (0 Bft) W 270 -2,7 C 0,3 C 0,0 km/h (0 Bft)
18.02.2018 04:32 0,3 C -0,1 C 2,7 C -0,3 C 80 % 1024,3 hPa 0,0 l/m 0,0 km/h (0 Bft) W 270 -2,7 C 0,3 C 0,0 km/h (0 Bft)
18.02.2018 04:30 0,3 C -0,1 C 2,7 C -0,3 C 80 % 1024,3 hPa 0,0 l/m 0,0 km/h (0 Bft) W 270 -2,7 C 0,3 C 0,0 km/h (0 Bft)
18.02.2018 04:28 0,3 C -0,1 C 2,7 C -0,3 C 80 % 1024,1 hPa 0,0 l/m 0,0 km/h (0 Bft) W 270 -2,7 C 0,3 C 0,0 km/h (0 Bft)
18.02.2018 04:26 0,3 C -0,1 C 2,7 C -0,3 C 81 % 1024,1 hPa 0,0 l/m 0,0 km/h (0 Bft) W 270 -2,6 C 0,3 C 0,0 km/h (0 Bft)
18.02.2018 04:24 0,3 C -0,1 C 2,7 C -0,3 C 80 % 1024,1 hPa 0,0 l/m 0,0 km/h (0 Bft) W 270 -2,7 C 0,3 C 0,0 km/h (0 Bft)
18.02.2018 04:22 0,3 C -0,1 C 2,7 C -0,3 C 80 % 1024,1 hPa 0,0 l/m 0,0 km/h (0 Bft) W 270 -2,7 C 0,3 C 0,0 km/h (0 Bft)
18.02.2018 04:20 0,3 C -0,1 C 2,7 C -0,3 C 80 % 1024,1 hPa 0,0 l/m 0,0 km/h (0 Bft) W 270 -2,7 C 0,3 C 0,0 km/h (0 Bft)
18.02.2018 04:18 0,3 C -0,1 C 2,7 C -0,3 C 80 % 1024,1 hPa 0,0 l/m 0,0 km/h (0 Bft) W 270 -2,7 C 0,3 C 0,0 km/h (0 Bft)
18.02.2018 04:16 0,3 C -0,1 C 2,7 C -0,3 C 80 % 1024,1 hPa 0,0 l/m 0,0 km/h (0 Bft) W 270 -2,7 C 0,3 C 0,0 km/h (0 Bft)
18.02.2018 04:14 0,3 C -0,1 C 2,7 C -0,3 C 80 % 1024,1 hPa 0,0 l/m 0,0 km/h (0 Bft) W 270 -2,7 C 0,3 C 0,0 km/h (0 Bft)
18.02.2018 04:12 0,3 C -0,3 C 2,7 C -0,3 C 80 % 1024,1 hPa 0,0 l/m 0,0 km/h (0 Bft) W 270 -2,7 C 0,3 C 0,0 km/h (0 Bft)
18.02.2018 04:10 0,3 C -0,3 C 2,7 C -0,3 C 80 % 1024,1 hPa 0,0 l/m 0,0 km/h (0 Bft) W 270 -2,7 C 0,3 C 0,0 km/h (0 Bft)
18.02.2018 04:08 0,3 C -0,3 C 2,7 C -0,3 C 80 % 1024,1 hPa 0,0 l/m 0,0 km/h (0 Bft) W 270 -2,7 C 0,3 C 0,0 km/h (0 Bft)
18.02.2018 04:06 0,3 C -0,1 C 2,7 C -0,3 C 80 % 1024,1 hPa 0,0 l/m 0,0 km/h (0 Bft) W 270 -2,7 C 0,3 C 0,0 km/h (0 Bft)
18.02.2018 04:04 0,3 C -0,1 C 2,7 C -0,3 C 80 % 1024,1 hPa 0,0 l/m 0,0 km/h (0 Bft) W 270 -2,7 C 0,3 C 0,0 km/h (0 Bft)
18.02.2018 04:02 0,3 C -0,1 C 2,7 C -0,3 C 80 % 1024,1 hPa 0,0 l/m 0,0 km/h (0 Bft) W 270 -2,7 C 0,3 C 0,0 km/h (0 Bft)
18.02.2018 04:00 0,3 C -0,1 C 2,7 C -0,3 C 80 % 1024,1 hPa 0,0 l/m 0,0 km/h (0 Bft) W 270 -2,7 C 0,3 C 0,0 km/h (0 Bft)
18.02.2018 03:58 0,3 C -0,1 C 2,7 C -0,3 C 80 % 1024,1 hPa 0,0 l/m 0,0 km/h (0 Bft) W 270 -2,7 C 0,3 C 0,0 km/h (0 Bft)
18.02.2018 03:56 0,3 C -0,1 C 2,7 C -0,3 C 80 % 1024,1 hPa 0,0 l/m 0,0 km/h (0 Bft) W 270 -2,7 C 0,3 C 0,0 km/h (0 Bft)
18.02.2018 03:54 0,3 C -0,1 C 2,7 C -0,3 C 80 % 1024,1 hPa 0,0 l/m 0,0 km/h (0 Bft) W 270 -2,7 C 0,3 C 0,0 km/h (0 Bft)
18.02.2018 03:52 0,3 C -0,1 C 2,7 C -0,3 C 81 % 1024,1 hPa 0,0 l/m 0,0 km/h (0 Bft) W 270 -2,6 C 0,3 C 0,0 km/h (0 Bft)
18.02.2018 03:50 0,3 C -0,2 C 2,7 C -0,3 C 81 % 1024,1 hPa 0,0 l/m 0,0 km/h (0 Bft) W 270 -2,6 C 0,3 C 0,0 km/h (0 Bft)
18.02.2018 03:48 0,3 C -0,2 C 2,7 C -0,3 C 81 % 1024,0 hPa 0,0 l/m 0,0 km/h (0 Bft) W 270 -2,6 C 0,3 C 0,0 km/h (0 Bft)
18.02.2018 03:46 0,3 C -0,3 C 2,7 C -0,3 C 81 % 1024,0 hPa 0,0 l/m 0,0 km/h (0 Bft) W 270 -2,6 C 0,3 C 0,0 km/h (0 Bft)
18.02.2018 03:44 0,3 C -0,3 C 2,7 C -0,3 C 81 % 1024,0 hPa 0,0 l/m 0,0 km/h (0 Bft) W 270 -2,6 C 0,3 C 0,0 km/h (0 Bft)
18.02.2018 03:42 0,3 C -0,1 C 2,7 C -0,3 C 80 % 1024,0 hPa 0,0 l/m 0,0 km/h (0 Bft) W 270 -2,7 C 0,3 C 0,0 km/h (0 Bft)
18.02.2018 03:40 0,3 C -0,1 C 2,7 C -0,3 C 80 % 1024,0 hPa 0,0 l/m 0,0 km/h (0 Bft) W 270 -2,7 C 0,3 C 0,0 km/h (0 Bft)
18.02.2018 03:39 0,3 C -0,1 C 2,7 C -0,3 C 80 % 1024,0 hPa 0,0 l/m 0,0 km/h (0 Bft) W 270 -2,7 C 0,3 C 0,0 km/h (0 Bft)
18.02.2018 03:36 0,3 C -0,1 C 2,7 C -0,3 C 81 % 1024,0 hPa 0,0 l/m 0,0 km/h (0 Bft) W 270 -2,6 C 0,3 C 0,0 km/h (0 Bft)
18.02.2018 03:34 0,3 C -0,2 C 2,7 C -0,3 C 81 % 1024,0 hPa 0,0 l/m 0,0 km/h (0 Bft) W 270 -2,6 C 0,3 C 0,0 km/h (0 Bft)
18.02.2018 03:32 0,3 C -0,1 C 2,7 C -0,3 C 81 % 1024,0 hPa 0,0 l/m 0,0 km/h (0 Bft) W 270 -2,6 C 0,3 C 0,0 km/h (0 Bft)
18.02.2018 03:30 0,3 C -0,1 C 2,7 C -0,3 C 81 % 1024,0 hPa 0,0 l/m 0,0 km/h (0 Bft) W 270 -2,6 C 0,3 C 0,0 km/h (0 Bft)
18.02.2018 03:28 0,3 C -0,1 C 2,7 C -0,3 C 81 % 1023,6 hPa 0,0 l/m 0,0 km/h (0 Bft) W 270 -2,6 C 0,3 C 0,0 km/h (0 Bft)
18.02.2018 03:26 0,3 C -0,1 C 2,7 C -0,3 C 81 % 1023,6 hPa 0,0 l/m 0,0 km/h (0 Bft) W 270 -2,6 C 0,3 C 0,0 km/h (0 Bft)
18.02.2018 03:24 0,3 C -0,1 C 2,7 C -0,3 C 81 % 1023,6 hPa 0,0 l/m 0,0 km/h (0 Bft) W 270 -2,6 C 0,3 C 0,0 km/h (0 Bft)
18.02.2018 03:22 0,3 C -0,1 C 2,7 C -0,3 C 81 % 1023,6 hPa 0,0 l/m 0,0 km/h (0 Bft) W 270 -2,6 C 0,3 C 0,0 km/h (0 Bft)
18.02.2018 03:20 0,3 C -0,1 C 2,7 C -0,3 C 81 % 1023,6 hPa 0,0 l/m 0,0 km/h (0 Bft) W 270 -2,6 C 0,3 C 0,0 km/h (0 Bft)
18.02.2018 03:19 0,3 C -0,2 C 2,7 C -0,3 C 81 % 1023,6 hPa 0,0 l/m 0,0 km/h (0 Bft) W 270 -2,6 C 0,3 C 0,0 km/h (0 Bft)
18.02.2018 03:16 0,3 C -0,1 C 2,7 C -0,3 C 81 % 1023,6 hPa 0,0 l/m 0,0 km/h (0 Bft) W 270 -2,6 C 0,3 C 0,0 km/h (0 Bft)
18.02.2018 03:14 0,3 C -0,2 C 2,7 C -0,3 C 81 % 1023,6 hPa 0,0 l/m 0,0 km/h (0 Bft) W 270 -2,6 C 0,3 C 0,0 km/h (0 Bft)
18.02.2018 03:12 0,3 C -0,1 C 2,7 C -0,3 C 81 % 1023,6 hPa 0,0 l/m 0,0 km/h (0 Bft) W 270 -2,6 C 0,3 C 0,0 km/h (0 Bft)
18.02.2018 03:10 0,3 C -0,2 C 2,7 C -0,3 C 81 % 1023,6 hPa 0,0 l/m 0,0 km/h (0 Bft) W 270 -2,6 C 0,3 C 0,0 km/h (0 Bft)
18.02.2018 03:08 0,3 C -0,2 C 2,7 C -0,3 C 81 % 1023,5 hPa 0,0 l/m 0,0 km/h (0 Bft) W 270 -2,6 C 0,3 C 0,0 km/h (0 Bft)
18.02.2018 03:06 0,3 C -0,2 C 2,7 C -0,3 C 81 % 1023,5 hPa 0,0 l/m 0,2 km/h (0 Bft) W 270 -2,6 C 0,3 C 0,0 km/h (0 Bft)
18.02.2018 03:04 0,3 C -0,3 C 2,7 C -0,3 C 81 % 1023,5 hPa 0,0 l/m 0,2 km/h (0 Bft) W 270 -2,6 C 0,3 C 0,0 km/h (0 Bft)
18.02.2018 03:02 0,2 C -0,3 C 2,7 C -0,3 C 81 % 1023,5 hPa 0,0 l/m 0,2 km/h (0 Bft) W 270 -2,7 C 0,2 C 0,0 km/h (0 Bft)
18.02.2018 03:00 0,2 C -0,3 C 2,7 C -0,3 C 81 % 1023,5 hPa 0,0 l/m 0,5 km/h (0 Bft) W 270 -2,7 C 0,2 C 0,0 km/h (0 Bft)
18.02.2018 02:58 0,2 C -0,3 C 2,7 C -0,3 C 81 % 1023,5 hPa 0,0 l/m 0,6 km/h (0 Bft) W 270 -2,7 C 0,2 C 0,0 km/h (0 Bft)
18.02.2018 02:56 0,2 C -0,3 C 2,7 C -0,3 C 81 % 1023,5 hPa 0,0 l/m 0,8 km/h (0 Bft) W 270 -2,7 C 0,2 C 0,0 km/h (0 Bft)
18.02.2018 02:54 0,2 C -0,3 C 2,7 C -0,3 C 80 % 1023,5 hPa 0,0 l/m 0,8 km/h (0 Bft) W 270 -2,8 C 0,2 C 0,0 km/h (0 Bft)
18.02.2018 02:52 0,2 C -0,3 C 2,7 C -0,3 C 80 % 1023,5 hPa 0,0 l/m 1,0 km/h (0 Bft) W 270 -2,8 C 0,2 C 3,5 km/h (1 Bft)
18.02.2018 02:50 0,2 C -0,2 C 2,7 C -0,3 C 81 % 1023,5 hPa 0,0 l/m 0,6 km/h (0 Bft) W 270 -2,7 C 0,2 C 3,5 km/h (1 Bft)
18.02.2018 02:49 0,2 C -0,2 C 2,7 C -0,3 C 81 % 1023,1 hPa 0,0 l/m 0,5 km/h (0 Bft) W 270 -2,7 C 0,2 C 0,0 km/h (0 Bft)
18.02.2018 02:46 0,2 C -0,2 C 2,7 C -0,3 C 81 % 1023,1 hPa 0,0 l/m 0,3 km/h (0 Bft) W 270 -2,7 C 0,2 C 3,1 km/h (1 Bft)
18.02.2018 02:44 0,2 C -0,1 C 2,7 C -0,3 C 81 % 1023,1 hPa 0,0 l/m 0,2 km/h (0 Bft) W 270 -2,7 C 0,2 C 0,0 km/h (0 Bft)
18.02.2018 02:42 0,2 C -0,2 C 2,7 C -0,3 C 81 % 1023,1 hPa 0,0 l/m 0,2 km/h (0 Bft) W 270 -2,7 C 0,2 C 0,0 km/h (0 Bft)
18.02.2018 02:40 0,2 C -0,2 C 2,7 C -0,3 C 81 % 1023,1 hPa 0,0 l/m 0,0 km/h (0 Bft) W 270 -2,7 C 0,2 C 0,0 km/h (0 Bft)
18.02.2018 02:39 0,2 C -0,2 C 2,7 C -0,3 C 81 % 1023,1 hPa 0,0 l/m 0,0 km/h (0 Bft) W 270 -2,7 C 0,2 C 0,0 km/h (0 Bft)
18.02.2018 02:36 0,2 C -0,2 C 2,7 C -0,2 C 80 % 1023,1 hPa 0,0 l/m 0,0 km/h (0 Bft) W 270 -2,8 C 0,2 C 0,0 km/h (0 Bft)
18.02.2018 02:34 0,1 C -0,2 C 2,7 C -0,2 C 80 % 1023,1 hPa 0,0 l/m 0,0 km/h (0 Bft) W 270 -2,9 C 0,1 C 0,0 km/h (0 Bft)
18.02.2018 02:32 0,2 C -0,2 C 2,7 C -0,2 C 80 % 1023,1 hPa 0,0 l/m 0,0 km/h (0 Bft) W 270 -2,8 C 0,2 C 0,0 km/h (0 Bft)
18.02.2018 02:30 0,2 C -0,2 C 2,7 C -0,2 C 80 % 1023,1 hPa 0,0 l/m 0,2 km/h (0 Bft) W 270 -2,8 C 0,2 C 0,0 km/h (0 Bft)
18.02.2018 02:28 0,2 C -0,2 C 2,7 C -0,2 C 80 % 1023,1 hPa 0,0 l/m 0,3 km/h (0 Bft) W 270 -2,8 C 0,2 C 0,0 km/h (0 Bft)
18.02.2018 02:26 0,2 C -0,2 C 2,7 C -0,2 C 81 % 1023,1 hPa 0,0 l/m 0,5 km/h (0 Bft) W 270 -2,7 C 0,2 C 0,0 km/h (0 Bft)
18.02.2018 02:24 0,2 C -0,2 C 2,7 C -0,2 C 81 % 1023,1 hPa 0,0 l/m 0,5 km/h (0 Bft) W 270 -2,7 C 0,2 C 0,0 km/h (0 Bft)
18.02.2018 02:22 0,2 C -0,2 C 2,7 C -0,2 C 81 % 1023,1 hPa 0,0 l/m 0,6 km/h (0 Bft) W 270 -2,7 C 0,2 C 0,0 km/h (0 Bft)
18.02.2018 02:20 0,2 C -0,3 C 2,7 C -0,2 C 81 % 1023,1 hPa 0,0 l/m 0,6 km/h (0 Bft) W 270 -2,7 C 0,2 C 3,1 km/h (1 Bft)
18.02.2018 02:18 0,2 C -0,2 C 2,7 C -0,2 C 81 % 1023,1 hPa 0,0 l/m 1,0 km/h (0 Bft) W 270 -2,7 C 0,2 C 3,1 km/h (1 Bft)
18.02.2018 02:16 0,2 C -0,2 C 2,7 C -0,2 C 81 % 1023,1 hPa 0,0 l/m 0,8 km/h (0 Bft) W 270 -2,7 C 0,2 C 2,9 km/h (1 Bft)
18.02.2018 02:14 0,2 C -0,2 C 2,7 C -0,2 C 81 % 1023,1 hPa 0,0 l/m 1,0 km/h (0 Bft) W 270 -2,7 C 0,2 C 2,1 km/h (1 Bft)
18.02.2018 02:12 0,2 C -0,2 C 2,7 C -0,2 C 81 % 1023,1 hPa 0,0 l/m 0,8 km/h (0 Bft) W 270 -2,7 C 0,2 C 0,0 km/h (0 Bft)
18.02.2018 02:10 0,2 C -0,2 C 2,7 C -0,2 C 81 % 1023,1 hPa 0,0 l/m 1,1 km/h (1 Bft) W 270 -2,7 C 0,2 C 0,0 km/h (0 Bft)
18.02.2018 02:09 0,2 C -0,2 C 2,7 C -0,2 C 81 % 1022,8 hPa 0,0 l/m 1,4 km/h (1 Bft) W 270 -2,7 C 0,2 C 3,5 km/h (1 Bft)
18.02.2018 02:06 0,2 C -0,2 C 2,7 C -0,2 C 81 % 1022,8 hPa 0,0 l/m 1,4 km/h (1 Bft) W 270 -2,7 C 0,2 C 2,9 km/h (1 Bft)
18.02.2018 02:04 0,3 C -0,2 C 2,7 C -0,2 C 81 % 1022,8 hPa 0,0 l/m 1,6 km/h (1 Bft) W 270 -2,6 C 0,3 C 2,9 km/h (1 Bft)
18.02.2018 02:02 0,3 C -0,2 C 2,7 C -0,2 C 81 % 1022,8 hPa 0,0 l/m 1,4 km/h (1 Bft) W 270 -2,6 C 0,3 C 3,1 km/h (1 Bft)
18.02.2018 02:00 0,3 C -0,2 C 2,7 C -0,2 C 81 % 1022,8 hPa 0,0 l/m 1,3 km/h (1 Bft) W 270 -2,6 C 0,3 C 3,1 km/h (1 Bft)
18.02.2018 01:59 0,3 C -0,2 C 2,7 C -0,2 C 81 % 1022,8 hPa 0,0 l/m 1,0 km/h (0 Bft) W 270 -2,6 C 0,3 C 4,1 km/h (1 Bft)
18.02.2018 01:56 0,3 C -0,2 C 2,7 C -0,2 C 81 % 1022,8 hPa 0,0 l/m 0,8 km/h (0 Bft) W 270 -2,6 C 0,3 C 2,7 km/h (1 Bft)
18.02.2018 01:54 0,3 C -0,2 C 2,7 C -0,1 C 81 % 1022,8 hPa 0,0 l/m 0,6 km/h (0 Bft) W 270 -2,6 C 0,3 C 1,9 km/h (1 Bft)
18.02.2018 01:52 0,3 C -0,2 C 2,7 C -0,1 C 81 % 1022,8 hPa 0,0 l/m 0,6 km/h (0 Bft) W 270 -2,6 C 0,3 C 0,0 km/h (0 Bft)
18.02.2018 01:50 0,3 C -0,2 C 2,7 C -0,2 C 81 % 1022,8 hPa 0,0 l/m 0,6 km/h (0 Bft) W 270 -2,6 C 0,3 C 0,0 km/h (0 Bft)
18.02.2018 01:49 0,3 C -0,2 C 2,7 C -0,2 C 81 % 1022,7 hPa 0,0 l/m 0,6 km/h (0 Bft) W 270 -2,6 C 0,3 C 3,1 km/h (1 Bft)
18.02.2018 01:46 0,3 C -0,2 C 2,7 C -0,1 C 81 % 1022,7 hPa 0,0 l/m 0,6 km/h (0 Bft) W 270 -2,6 C 0,3 C 3,5 km/h (1 Bft)
18.02.2018 01:44 0,3 C -0,2 C 2,7 C -0,1 C 81 % 1022,7 hPa 0,0 l/m 0,6 km/h (0 Bft) W 270 -2,6 C 0,3 C 1,9 km/h (1 Bft)
18.02.2018 01:42 0,3 C 0,0 C 2,7 C -0,2 C 81 % 1022,7 hPa 0,0 l/m 0,8 km/h (0 Bft) W 270 -2,6 C 0,3 C 0,0 km/h (0 Bft)
18.02.2018 01:40 0,3 C 0,0 C 2,7 C -0,1 C 81 % 1022,7 hPa 0,0 l/m 0,8 km/h (0 Bft) W 270 -2,6 C 0,3 C 0,0 km/h (0 Bft)
18.02.2018 01:39 0,3 C 0,0 C 2,7 C -0,1 C 81 % 1022,7 hPa 0,0 l/m 0,8 km/h (0 Bft) W 270 -2,6 C 0,3 C 0,0 km/h (0 Bft)
18.02.2018 01:36 0,3 C 0,0 C 2,7 C -0,1 C 81 % 1022,7 hPa 0,0 l/m 0,8 km/h (0 Bft) W 270 -2,6 C 0,3 C 2,9 km/h (1 Bft)
18.02.2018 01:34 0,3 C 0,0 C 2,7 C -0,1 C 81 % 1022,7 hPa 0,0 l/m 0,5 km/h (0 Bft) W 270 -2,6 C 0,3 C 2,7 km/h (1 Bft)
18.02.2018 01:32 0,3 C 0,0 C 2,7 C -0,1 C 81 % 1022,7 hPa 0,0 l/m 0,3 km/h (0 Bft) W 270 -2,6 C 0,3 C 2,7 km/h (1 Bft)
18.02.2018 01:30 0,3 C 0,1 C 2,7 C -0,1 C 81 % 1022,7 hPa 0,0 l/m 0,0 km/h (0 Bft) W 270 -2,6 C 0,3 C 0,0 km/h (0 Bft)
18.02.2018 01:28 0,3 C 0,1 C 2,7 C -0,1 C 81 % 1022,4 hPa 0,0 l/m 0,0 km/h (0 Bft) W 270 -2,6 C 0,3 C 0,0 km/h (0 Bft)
18.02.2018 01:26 0,3 C 0,1 C 2,7 C -0,1 C 81 % 1022,4 hPa 0,0 l/m 0,0 km/h (0 Bft) W 270 -2,6 C 0,3 C 0,0 km/h (0 Bft)
18.02.2018 01:24 0,3 C 0,1 C 2,7 C -0,1 C 81 % 1022,4 hPa 0,0 l/m 0,0 km/h (0 Bft) W 270 -2,6 C 0,3 C 0,0 km/h (0 Bft)
18.02.2018 01:22 0,3 C 0,0 C 2,7 C -0,1 C 82 % 1022,4 hPa 0,0 l/m 0,0 km/h (0 Bft) W 270 -2,4 C 0,3 C 0,0 km/h (0 Bft)
18.02.2018 01:20 0,2 C 0,0 C 2,7 C -0,1 C 81 % 1022,4 hPa 0,0 l/m 0,0 km/h (0 Bft) W 270 -2,7 C 0,2 C 0,0 km/h (0 Bft)
18.02.2018 01:19 0,2 C 0,1 C 2,7 C -0,1 C 81 % 1022,4 hPa 0,0 l/m 0,0 km/h (0 Bft) W 270 -2,7 C 0,2 C 0,0 km/h (0 Bft)
18.02.2018 01:16 0,2 C 0,1 C 2,7 C -0,1 C 81 % 1022,4 hPa 0,0 l/m 0,0 km/h (0 Bft) W 270 -2,7 C 0,2 C 0,0 km/h (0 Bft)
18.02.2018 01:14 0,2 C 0,1 C 2,7 C -0,1 C 81 % 1022,4 hPa 0,0 l/m 0,0 km/h (0 Bft) W 270 -2,7 C 0,2 C 0,0 km/h (0 Bft)
18.02.2018 01:12 0,2 C 0,1 C 2,7 C -0,1 C 81 % 1022,4 hPa 0,0 l/m 0,2 km/h (0 Bft) W 270 -2,7 C 0,2 C 0,0 km/h (0 Bft)
18.02.2018 01:10 0,2 C 0,1 C 2,7 C -0,1 C 81 % 1022,4 hPa 0,0 l/m 0,2 km/h (0 Bft) W 270 -2,7 C 0,2 C 0,0 km/h (0 Bft)
18.02.2018 01:09 0,2 C 0,1 C 2,7 C -0,1 C 81 % 1022,3 hPa 0,0 l/m 0,2 km/h (0 Bft) W 270 -2,7 C 0,2 C 0,0 km/h (0 Bft)
18.02.2018 01:06 0,1 C 0,1 C 2,7 C -0,1 C 81 % 1022,3 hPa 0,0 l/m 0,3 km/h (0 Bft) W 270 -2,8 C 0,1 C 0,0 km/h (0 Bft)
18.02.2018 01:04 0,0 C 0,1 C 2,7 C -0,1 C 81 % 1022,3 hPa 0,0 l/m 0,5 km/h (0 Bft) W 270 -2,9 C 0,0 C 1,9 km/h (1 Bft)
18.02.2018 01:02 0,0 C 0,2 C 2,7 C -0,1 C 81 % 1022,3 hPa 0,0 l/m 1,0 km/h (0 Bft) W 270 -2,9 C 0,0 C 1,9 km/h (1 Bft)
18.02.2018 01:00 0,0 C 0,2 C 2,7 C -0,1 C 81 % 1022,3 hPa 0,0 l/m 1,1 km/h (1 Bft) W 270 -2,9 C 0,0 C 0,0 km/h (0 Bft)
18.02.2018 00:58 0,0 C 0,2 C 2,7 C -0,1 C 81 % 1022,3 hPa 0,0 l/m 1,1 km/h (1 Bft) W 270 -2,9 C 0,0 C 2,3 km/h (1 Bft)
18.02.2018 00:56 0,0 C 0,2 C 2,7 C -0,1 C 81 % 1022,3 hPa 0,0 l/m 1,1 km/h (1 Bft) W 270 -2,9 C 0,0 C 2,7 km/h (1 Bft)
18.02.2018 00:54 0,0 C 0,2 C 2,7 C -0,1 C 81 % 1022,3 hPa 0,0 l/m 1,1 km/h (1 Bft) W 270 -2,9 C 0,0 C 6,2 km/h (2 Bft)
18.02.2018 00:52 0,0 C 0,2 C 2,7 C -0,1 C 81 % 1022,3 hPa 0,0 l/m 0,8 km/h (0 Bft) W 270 -2,9 C 0,0 C 6,2 km/h (2 Bft)
18.02.2018 00:50 -0,1 C 0,2 C 2,7 C -0,1 C 81 % 1022,3 hPa 0,0 l/m 0,3 km/h (0 Bft) W 270 -3,0 C -0,1 C 1,9 km/h (1 Bft)
18.02.2018 00:49 -0,1 C 0,2 C 2,7 C -0,1 C 81 % 1022,1 hPa 0,0 l/m 0,3 km/h (0 Bft) W 270 -3,0 C -0,1 C 0,0 km/h (0 Bft)
18.02.2018 00:46 -0,1 C 0,1 C 2,7 C -0,1 C 81 % 1022,1 hPa 0,0 l/m 0,6 km/h (0 Bft) W 270 -3,0 C -0,1 C 3,3 km/h (1 Bft)
18.02.2018 00:44 -0,1 C 0,1 C 2,7 C -0,1 C 81 % 1022,1 hPa 0,0 l/m 1,0 km/h (0 Bft) W 270 -3,0 C -0,1 C 3,3 km/h (1 Bft)
18.02.2018 00:42 -0,1 C 0,1 C 2,7 C -0,1 C 81 % 1022,1 hPa 0,0 l/m 1,0 km/h (0 Bft) W 270 -3,0 C -0,1 C 0,0 km/h (0 Bft)
18.02.2018 00:40 -0,1 C 0,1 C 2,7 C -0,1 C 81 % 1022,1 hPa 0,0 l/m 1,6 km/h (1 Bft) W 270 -3,0 C -0,1 C 0,0 km/h (0 Bft)
18.02.2018 00:39 0,0 C 0,1 C 2,7 C -0,1 C 81 % 1022,1 hPa 0,0 l/m 2,3 km/h (1 Bft) W 270 -2,9 C 0,0 C 0,0 km/h (0 Bft)
18.02.2018 00:36 0,0 C 0,1 C 2,7 C -0,1 C 81 % 1022,1 hPa 0,0 l/m 2,4 km/h (1 Bft) W 270 -2,9 C 0,0 C 3,3 km/h (1 Bft)
18.02.2018 00:34 0,0 C 0,1 C 2,7 C -0,1 C 81 % 1022,1 hPa 0,0 l/m 2,9 km/h (1 Bft) W 270 -2,9 C 0,0 C 3,3 km/h (1 Bft)
18.02.2018 00:32 -0,1 C 0,1 C 2,7 C -0,1 C 81 % 1022,1 hPa 0,0 l/m 3,1 km/h (1 Bft) W 270 -3,0 C -0,1 C 5,6 km/h (1 Bft)
18.02.2018 00:30 -0,1 C 0,1 C 2,7 C -0,1 C 81 % 1022,1 hPa 0,0 l/m 3,2 km/h (1 Bft) W 270 -3,0 C -0,1 C 5,6 km/h (1 Bft)
18.02.2018 00:29 -0,1 C 0,1 C 2,7 C -0,1 C 81 % 1021,7 hPa 0,0 l/m 3,5 km/h (1 Bft) W 270 -3,0 C -0,1 C 4,8 km/h (1 Bft)
18.02.2018 00:26 -0,2 C 0,1 C 2,7 C -0,1 C 81 % 1021,7 hPa 0,0 l/m 3,9 km/h (1 Bft) W 270 -3,1 C -0,2 C 7,3 km/h (2 Bft)
18.02.2018 00:24 -0,2 C 0,1 C 2,7 C -0,1 C 81 % 1021,7 hPa 0,0 l/m 3,7 km/h (1 Bft) W 270 -3,1 C -0,2 C 7,3 km/h (2 Bft)
18.02.2018 00:22 -0,2 C 0,1 C 2,7 C -0,1 C 81 % 1021,7 hPa 0,0 l/m 3,2 km/h (1 Bft) W 270 -3,1 C -0,2 C 10,2 km/h (2 Bft)
18.02.2018 00:20 -0,2 C 0,1 C 2,7 C -0,1 C 81 % 1021,7 hPa 0,0 l/m 3,2 km/h (1 Bft) W 270 -3,1 C -0,2 C 6,8 km/h (2 Bft)
18.02.2018 00:18 -0,2 C 0,1 C 2,7 C -0,1 C 81 % 1021,7 hPa 0,0 l/m 2,7 km/h (1 Bft) W 270 -3,1 C -0,2 C 7,1 km/h (2 Bft)
18.02.2018 00:16 -0,2 C 0,1 C 2,7 C -0,1 C 81 % 1021,7 hPa 0,0 l/m 2,4 km/h (1 Bft) W 270 -3,1 C -0,2 C 7,1 km/h (2 Bft)
18.02.2018 00:14 -0,2 C 0,1 C 2,7 C -0,1 C 81 % 1021,7 hPa 0,0 l/m 1,8 km/h (1 Bft) W 270 -3,1 C -0,2 C 4,1 km/h (1 Bft)
18.02.2018 00:12 -0,2 C 0,2 C 2,7 C -0,1 C 80 % 1021,7 hPa 0,0 l/m 1,4 km/h (1 Bft) W 270 -3,2 C -0,2 C 4,1 km/h (1 Bft)
18.02.2018 00:10 -0,2 C 0,2 C 2,7 C -0,1 C 80 % 1021,7 hPa 0,0 l/m 2,6 km/h (1 Bft) W 270 -3,2 C -0,2 C 2,7 km/h (1 Bft)
18.02.2018 00:09 -0,2 C 0,2 C 2,7 C -0,1 C 80 % 1021,5 hPa 0,0 l/m 2,6 km/h (1 Bft) W 270 -3,2 C -0,2 C 2,7 km/h (1 Bft)
18.02.2018 00:06 -0,2 C 0,2 C 2,7 C -0,1 C 80 % 1021,5 hPa 0,0 l/m 2,6 km/h (1 Bft) W 270 -3,2 C -0,2 C 2,7 km/h (1 Bft)
18.02.2018 00:04 -0,2 C 0,2 C 2,7 C -0,1 C 80 % 1021,5 hPa 0,0 l/m 2,6 km/h (1 Bft) W 270 -3,2 C -0,2 C 2,7 km/h (1 Bft)
18.02.2018 00:02 -0,2 C 0,2 C 2,7 C -0,1 C 80 % 1021,5 hPa 0,0 l/m 2,6 km/h (1 Bft) W 270 -3,2 C -0,2 C 2,7 km/h (1 Bft)
18.02.2018 00:00 -0,1 C 0,2 C 2,7 C -0,1 C 80 % 1021,5 hPa 0,0 l/m 2,7 km/h (1 Bft) W 270 -3,1 C -0,1 C 4,2 km/h (1 Bft)
_ Min-Zeit 00:02 20:56 15:32 07:12 12:12 00:00 - 01:14 - - 18:40 00:02 00:39
Minimum _ -0,2 C -0,7 C 2,3 C -0,6 C 70 % 1021,5 hPa - 0,0 km/h (0 Bft) - - -3,6 C -0,2 C 0,0 km/h (0 Bft)
_ Max-Zeit 13:26 13:20 00:00 14:38 06:32 11:50 15:04 00:26 - - 06:34 13:26 00:22
Maximum _ 3,2 C 2,0 C 2,7 C 1,6 C 84 % 1028,4 hPa 0,1 l/m 3,9 km/h
W (1 Bft)
- - -0,5 C 3,2 C 10,2 km/h
W (2 Bft)
Durchschnitt _ 1,0 C 0,1 C 2,5 C 0,2 C 77 % 1026,5 hPa #1,2 l/m 0,5 km/h (0 Bft) W - -2,7 C 1,0 C 1,0 km/h (0 Bft)